| time (UTC) | temp C | wind direction | speed KPH | gust KPH | rain 1hr cm | rain 24hr cm | rain mn cm | humidity % | barometer mb |
| 20260510045640 | 23 | 120 | 0.0 | 3.2 | 0.00 | 0.03 | 0.03 | 94 | 1014.4 |
| 20260510045541 | 23 | 120 | 0.0 | 3.2 | 0.00 | 0.03 | 0.03 | 94 | 1014.5 |
| 20260510045440 | 23 | 120 | 0.0 | 3.2 | 0.00 | 0.03 | 0.03 | 94 | 1014.4 |
| 20260510045342 | 23 | 120 | 0.0 | 3.2 | 0.00 | 0.03 | 0.03 | 94 | 1014.3 |
| 20260510045241 | 23 | 120 | 0.0 | 3.2 | 0.00 | 0.03 | 0.03 | 93 | 1014.3 |
| 20260510045138 | 23 | 121 | 0.0 | 1.6 | 0.00 | 0.03 | 0.03 | 93 | 1014.4 |
| 20260510045032 | 23 | 79 | 0.0 | 1.6 | 0.00 | 0.03 | 0.03 | 93 | 1014.4 |
| 20260510044933 | 23 | 79 | 0.0 | 1.6 | 0.00 | 0.03 | 0.03 | 93 | 1014.5 |
| 20260510044832 | 23 | 79 | 0.0 | 3.2 | 0.00 | 0.03 | 0.03 | 93 | 1014.5 |
| 20260510044732 | 23 | 79 | 0.0 | 3.2 | 0.00 | 0.03 | 0.03 | 93 | 1014.5 |
| 20260510044630 | 23 | 79 | 0.0 | 3.2 | 0.00 | 0.03 | 0.03 | 92 | 1014.4 |
| 20260510044525 | 23 | 79 | 0.0 | 3.2 | 0.00 | 0.03 | 0.03 | 92 | 1014.4 |
| 20260510044425 | 23 | 79 | 0.0 | 3.2 | 0.00 | 0.03 | 0.03 | 93 | 1014.4 |
| 20260510044322 | 23 | 79 | 0.0 | 3.2 | 0.00 | 0.03 | 0.03 | 93 | 1014.4 |
| 20260510044220 | 23 | 79 | 0.0 | 3.2 | 0.00 | 0.03 | 0.03 | 92 | 1014.6 |
| 20260510044120 | 23 | 79 | 0.0 | 3.2 | 0.00 | 0.03 | 0.03 | 93 | 1014.5 |
| 20260510044016 | 23 | 79 | 1.6 | 3.2 | 0.00 | 0.03 | 0.03 | 93 | 1014.6 |
| 20260510043913 | 23 | 79 | 0.0 | 4.8 | 0.00 | 0.03 | 0.03 | 92 | 1014.6 |
| 20260510043809 | 23 | 79 | 0.0 | 4.8 | 0.00 | 0.03 | 0.03 | 92 | 1014.6 |
| 20260510043702 | 23 | 79 | 0.0 | 4.8 | 0.00 | 0.03 | 0.03 | 92 | 1014.6 |
| 20260510043603 | 23 | 79 | 0.0 | 4.8 | 0.00 | 0.03 | 0.03 | 92 | 1014.6 |
| 20260510043503 | 23 | 79 | 0.0 | 4.8 | 0.00 | 0.03 | 0.03 | 92 | 1014.7 |
| 20260510043404 | 23 | 79 | 0.0 | 4.8 | 0.00 | 0.03 | 0.03 | 92 | 1014.7 |
| 20260510043303 | 23 | 79 | 1.6 | 4.8 | 0.00 | 0.03 | 0.03 | 92 | 1014.7 |
| 20260510043203 | 23 | 79 | 1.6 | 4.8 | 0.00 | 0.03 | 0.03 | 92 | 1014.7 |
| 20260510043103 | 23 | 80 | 1.6 | 4.8 | 0.00 | 0.03 | 0.03 | 92 | 1014.7 |
| 20260510043003 | 23 | 80 | 0.0 | 3.2 | 0.00 | 0.03 | 0.03 | 91 | 1014.7 |
| 20260510042902 | 23 | 79 | 0.0 | 4.8 | 0.00 | 0.03 | 0.03 | 92 | 1014.7 |
| 20260510042802 | 23 | 79 | 0.0 | 4.8 | 0.00 | 0.03 | 0.03 | 92 | 1014.7 |
| 20260510042703 | 23 | 79 | 0.0 | 4.8 | 0.00 | 0.03 | 0.03 | 92 | 1014.7 |
| 20260510042602 | 23 | 79 | 0.0 | 6.4 | 0.00 | 0.03 | 0.03 | 91 | 1014.6 |
| 20260510042504 | 23 | 79 | 0.0 | 6.4 | 0.00 | 0.03 | 0.03 | 91 | 1014.7 |
| 20260510042403 | 23 | 79 | 1.6 | 6.4 | 0.00 | 0.03 | 0.03 | 91 | 1014.7 |
| 20260510042306 | 23 | 79 | 1.6 | 6.4 | 0.00 | 0.03 | 0.03 | 91 | 1014.7 |
| 20260510042204 | 23 | 79 | 1.6 | 6.4 | 0.00 | 0.03 | 0.03 | 91 | 1014.7 |
| 20260510042104 | 23 | 79 | 1.6 | 6.4 | 0.00 | 0.03 | 0.03 | 91 | 1014.8 |
| 20260510042002 | 23 | 79 | 1.6 | 6.4 | 0.00 | 0.03 | 0.03 | 91 | 1014.8 |
| 20260510041902 | 23 | 62 | 1.6 | 6.4 | 0.00 | 0.03 | 0.03 | 91 | 1014.9 |
| 20260510041804 | 23 | 62 | 1.6 | 6.4 | 0.00 | 0.03 | 0.03 | 91 | 1014.9 |
| 20260510041703 | 23 | 62 | 1.6 | 6.4 | 0.00 | 0.03 | 0.03 | 91 | 1014.8 |
| 20260510041602 | 23 | 62 | 0.0 | 4.8 | 0.00 | 0.03 | 0.03 | 91 | 1014.8 |
| 20260510041503 | 23 | 62 | 0.0 | 4.8 | 0.00 | 0.03 | 0.03 | 91 | 1014.8 |
| 20260510041402 | 23 | 62 | 0.0 | 4.8 | 0.00 | 0.03 | 0.03 | 91 | 1014.7 |
| 20260510041302 | 23 | 62 | 0.0 | 4.8 | 0.00 | 0.03 | 0.03 | 91 | 1014.8 |
| 20260510041203 | 23 | 62 | 1.6 | 4.8 | 0.00 | 0.03 | 0.03 | 91 | 1014.8 |
| 20260510041102 | 23 | 62 | 1.6 | 4.8 | 0.00 | 0.03 | 0.03 | 91 | 1014.8 |
| 20260510041003 | 23 | 62 | 1.6 | 4.8 | 0.00 | 0.03 | 0.03 | 91 | 1014.9 |
| 20260510040902 | 23 | 62 | 1.6 | 3.2 | 0.00 | 0.03 | 0.03 | 91 | 1014.8 |
| 20260510040804 | 23 | 62 | 1.6 | 3.2 | 0.00 | 0.03 | 0.03 | 91 | 1014.8 |
| 20260510040702 | 23 | 62 | 1.6 | 4.8 | 0.00 | 0.03 | 0.03 | 90 | 1014.8 |
| 20260510040603 | 23 | 62 | 0.0 | 4.8 | 0.00 | 0.03 | 0.03 | 90 | 1014.9 |
| 20260510040505 | 23 | 62 | 0.0 | 4.8 | 0.00 | 0.03 | 0.03 | 90 | 1015.0 |
| 20260510040404 | 23 | 62 | 1.6 | 4.8 | 0.00 | 0.03 | 0.03 | 90 | 1014.9 |
| 20260510040304 | 23 | 62 | 0.0 | 4.8 | 0.00 | 0.03 | 0.03 | 90 | 1014.9 |
| 20260510040204 | 23 | 62 | 0.0 | 4.8 | 0.00 | 0.03 | 0.03 | 90 | 1015.0 |
| 20260510040004 | 23 | 62 | 1.6 | 4.8 | 0.00 | 0.03 | 0.03 | 90 | 1015.1 |
| 20260510035903 | 23 | 62 | 1.6 | 4.8 | 0.00 | 0.03 | 0.03 | 90 | 1015.0 |
| 20260510035803 | 23 | 62 | 1.6 | 4.8 | 0.00 | 0.03 | 0.03 | 90 | 1015.0 |
| 20260510035704 | 23 | 62 | 1.6 | 4.8 | 0.00 | 0.03 | 0.03 | 90 | 1015.0 |
| 20260510035602 | 23 | 62 | 1.6 | 4.8 | 0.00 | 0.03 | 0.03 | 90 | 1015.0 |
| 20260510035502 | 23 | 62 | 1.6 | 4.8 | 0.00 | 0.03 | 0.03 | 90 | 1015.0 |
| 20260510035402 | 23 | 62 | 1.6 | 6.4 | 0.00 | 0.03 | 0.03 | 90 | 1015.0 |
| 20260510035306 | 23 | 61 | 1.6 | 6.4 | 0.00 | 0.03 | 0.03 | 90 | 1015.0 |
| 20260510035204 | 23 | 62 | 1.6 | 6.4 | 0.00 | 0.03 | 0.03 | 90 | 1014.9 |
| 20260510035102 | 23 | 62 | 1.6 | 6.4 | 0.00 | 0.03 | 0.03 | 90 | 1014.9 |
| 20260510035003 | 23 | 62 | 1.6 | 6.4 | 0.00 | 0.03 | 0.03 | 90 | 1014.8 |
| 20260510034903 | 23 | 62 | 1.6 | 6.4 | 0.00 | 0.03 | 0.03 | 89 | 1014.7 |
| 20260510034803 | 23 | 61 | 0.0 | 6.4 | 0.00 | 0.03 | 0.03 | 89 | 1014.7 |
| 20260510034704 | 23 | 61 | 1.6 | 6.4 | 0.00 | 0.03 | 0.03 | 89 | 1014.7 |
| 20260510034603 | 23 | 61 | 3.2 | 6.4 | 0.00 | 0.03 | 0.03 | 90 | 1014.6 |
| 20260510034502 | 23 | 61 | 3.2 | 6.4 | 0.00 | 0.03 | 0.03 | 89 | 1014.7 |
| 20260510034402 | 23 | 103 | 3.2 | 6.4 | 0.00 | 0.03 | 0.03 | 89 | 1014.6 |
| 20260510034304 | 23 | 125 | 1.6 | 3.2 | 0.00 | 0.03 | 0.03 | 89 | 1014.6 |
| 20260510034202 | 23 | 72 | 1.6 | 3.2 | 0.00 | 0.03 | 0.03 | 89 | 1014.5 |
| 20260510034102 | 23 | 69 | 1.6 | 3.2 | 0.00 | 0.03 | 0.03 | 89 | 1014.5 |
| 20260510034004 | 23 | 69 | 1.6 | 3.2 | 0.00 | 0.03 | 0.03 | 89 | 1014.5 |
| 20260510033902 | 23 | 69 | 1.6 | 3.2 | 0.00 | 0.03 | 0.03 | 89 | 1014.5 |
| 20260510033802 | 23 | 69 | 0.0 | 3.2 | 0.00 | 0.03 | 0.03 | 89 | 1014.5 |
| 20260510033703 | 23 | 69 | 0.0 | 3.2 | 0.00 | 0.03 | 0.03 | 89 | 1014.5 |
| 20260510033603 | 23 | 69 | 0.0 | 3.2 | 0.00 | 0.03 | 0.03 | 89 | 1014.6 |
| 20260510033502 | 23 | 69 | 0.0 | 3.2 | 0.00 | 0.03 | 0.03 | 89 | 1014.6 |
| 20260510033402 | 23 | 69 | 0.0 | 3.2 | 0.00 | 0.03 | 0.03 | 88 | 1014.6 |
| 20260510033304 | 23 | 69 | 0.0 | 0.0 | 0.00 | 0.03 | 0.03 | 87 | 1014.6 |
| 20260510033203 | -17 | 0.0 | 0.0 | 0.00 | 0.03 | 0.03 | 1014.6 | ||
| 20260510033102 | -17 | 0.0 | 0.0 | 0.00 | 0.03 | 0.03 | 1014.6 | ||
| 20260510033005 | -17 | 0.0 | 0.0 | 0.00 | 0.03 | 0.03 | 1014.6 | ||
| 20260510032904 | -17 | 0.0 | 0.0 | 0.00 | 0.03 | 0.03 | 1014.6 | ||
| 20260510032803 | -17 | 0.0 | 0.0 | 0.00 | 0.03 | 0.03 | 1014.7 | ||
| 20260510032704 | -17 | 0.0 | 4.8 | 0.00 | 0.03 | 0.03 | 1014.7 | ||
| 20260510032604 | -17 | 0.0 | 4.8 | 0.00 | 0.03 | 0.03 | 1014.7 | ||
| 20260510032504 | -17 | 0.0 | 4.8 | 0.00 | 0.03 | 0.03 | 1014.8 | ||
| 20260510032403 | -17 | 0.0 | 4.8 | 0.00 | 0.03 | 0.03 | 1014.9 | ||
| 20260510032306 | -17 | 0.0 | 4.8 | 0.00 | 0.03 | 0.03 | 1014.9 | ||
| 20260510032204 | 24 | 62 | 3.2 | 8.0 | 0.00 | 0.03 | 0.03 | 87 | 1014.9 |
| 20260510032105 | 24 | 62 | 3.2 | 8.0 | 0.00 | 0.03 | 0.03 | 87 | 1015.0 |
| 20260510032004 | 24 | 62 | 3.2 | 8.0 | 0.00 | 0.03 | 0.03 | 87 | 1015.0 |
| 20260510031903 | 24 | 62 | 3.2 | 8.0 | 0.00 | 0.03 | 0.03 | 87 | 1015.0 |
| 20260510031803 | 24 | 62 | 3.2 | 8.0 | 0.00 | 0.03 | 0.03 | 87 | 1015.0 |
| 20260510031703 | 24 | 75 | 3.2 | 8.0 | 0.00 | 0.03 | 0.03 | 87 | 1015.0 |
| 20260510031539 | 24 | 75 | 3.2 | 8.0 | 0.00 | 0.03 | 0.03 | 87 | 1015.1 |
| 20260510031437 | 24 | 61 | 3.2 | 8.0 | 0.00 | 0.03 | 0.03 | 87 | 1015.1 |
| 20260510031336 | 24 | 34 | 3.2 | 14.5 | 0.00 | 0.03 | 0.03 | 87 | 1015.0 |
| 20260510031235 | 24 | 102 | 3.2 | 14.5 | 0.00 | 0.03 | 0.03 | 87 | 1015.1 |
| 20260510031134 | 24 | 75 | 3.2 | 14.5 | 0.00 | 0.03 | 0.03 | 87 | 1015.0 |
| 20260510031036 | 24 | 78 | 3.2 | 14.5 | 0.00 | 0.03 | 0.03 | 87 | 1015.0 |
| 20260510030935 | 24 | 125 | 3.2 | 14.5 | 0.00 | 0.03 | 0.03 | 87 | 1014.9 |
| 20260510030835 | 24 | 87 | 1.6 | 14.5 | 0.00 | 0.03 | 0.03 | 86 | 1014.9 |
| 20260510030735 | 24 | 87 | 3.2 | 14.5 | 0.00 | 0.03 | 0.03 | 86 | 1014.9 |
| 20260510030635 | 24 | 68 | 3.2 | 14.5 | 0.00 | 0.03 | 0.03 | 87 | 1014.8 |
| 20260510030535 | 24 | 65 | 6.4 | 14.5 | 0.00 | 0.03 | 0.03 | 87 | 1014.8 |
| 20260510030435 | 24 | 66 | 8.0 | 14.5 | 0.00 | 0.03 | 0.03 | 87 | 1014.7 |
| 20260510030335 | 24 | 85 | 6.4 | 11.3 | 0.00 | 0.03 | 0.03 | 87 | 1014.7 |
| 20260510030234 | 24 | 69 | 4.8 | 11.3 | 0.00 | 0.03 | 0.03 | 87 | 1014.7 |
| 20260510030135 | 24 | 100 | 3.2 | 14.5 | 0.00 | 0.03 | 0.03 | 87 | 1014.6 |
| 20260510030035 | 25 | 73 | 3.2 | 14.5 | 0.00 | 0.03 | 0.03 | 87 | 1014.6 |
| 20260510025934 | 25 | 75 | 3.2 | 14.5 | 0.00 | 0.03 | 0.03 | 87 | 1014.6 |
| 20260510025835 | 25 | 73 | 3.2 | 14.5 | 0.00 | 0.03 | 0.03 | 87 | 1014.6 |
| 20260510025732 | 25 | 76 | 3.2 | 14.5 | 0.00 | 0.03 | 0.03 | 87 | 1014.6 |
| 20260510025630 | 25 | 80 | 4.8 | 14.5 | 0.00 | 0.03 | 0.03 | 87 | 1014.6 |
| 20260510025531 | 25 | 75 | 6.4 | 14.5 | 0.00 | 0.03 | 0.03 | 87 | 1014.6 |
| 20260510025432 | 25 | 104 | 4.8 | 14.5 | 0.00 | 0.03 | 0.03 | 87 | 1014.6 |
| 20260510025307 | 25 | 90 | 6.4 | 14.5 | 0.00 | 0.03 | 0.03 | 87 | 1014.6 |
| 20260510025205 | 25 | 100 | 8.0 | 11.3 | 0.00 | 0.03 | 0.03 | 87 | 1014.6 |
| 20260510025104 | 25 | 93 | 4.8 | 11.3 | 0.00 | 0.03 | 0.03 | 87 | 1014.6 |
| 20260510025006 | 25 | 107 | 3.2 | 14.5 | 0.00 | 0.03 | 0.03 | 87 | 1014.6 |
| 20260510024902 | 25 | 86 | 4.8 | 14.5 | 0.00 | 0.03 | 0.03 | 87 | 1014.7 |
| 20260510024803 | 25 | 82 | 4.8 | 14.5 | 0.00 | 0.03 | 0.03 | 88 | 1014.6 |
| 20260510024703 | 25 | 86 | 4.8 | 14.5 | 0.00 | 0.03 | 0.03 | 89 | 1014.6 |
| 20260510024603 | 25 | 82 | 8.0 | 14.5 | 0.00 | 0.03 | 0.03 | 89 | 1014.6 |
| 20260510024503 | 25 | 82 | 8.0 | 14.5 | 0.00 | 0.03 | 0.03 | 89 | 1014.5 |
| 20260510024403 | 25 | 82 | 8.0 | 16.1 | 0.00 | 0.03 | 0.03 | 89 | 1014.5 |
| 20260510024301 | 25 | 90 | 6.4 | 16.1 | 0.00 | 0.03 | 0.03 | 89 | 1014.5 |
| 20260510024203 | 25 | 93 | 6.4 | 16.1 | 0.00 | 0.03 | 0.03 | 89 | 1014.5 |
| 20260510024103 | 25 | 62 | 6.4 | 16.1 | 0.00 | 0.03 | 0.03 | 90 | 1014.5 |
| 20260510024003 | 25 | 99 | 4.8 | 16.1 | 0.00 | 0.03 | 0.03 | 90 | 1014.5 |
| 20260510023902 | 25 | 66 | 6.4 | 16.1 | 0.00 | 0.03 | 0.03 | 90 | 1014.5 |
| 20260510023803 | 25 | 61 | 6.4 | 16.1 | 0.00 | 0.03 | 0.03 | 90 | 1014.5 |
| 20260510023702 | 25 | 61 | 6.4 | 16.1 | 0.00 | 0.03 | 0.03 | 90 | 1014.5 |
| 20260510023604 | 25 | 68 | 8.0 | 16.1 | 0.00 | 0.03 | 0.03 | 90 | 1014.5 |
| 20260510023504 | 25 | 110 | 6.4 | 16.1 | 0.00 | 0.03 | 0.03 | 90 | 1014.5 |
| 20260510023403 | 25 | 96 | 8.0 | 14.5 | 0.00 | 0.03 | 0.03 | 90 | 1014.5 |
| 20260510023302 | 25 | 99 | 8.0 | 14.5 | 0.00 | 0.03 | 0.03 | 91 | 1014.4 |
| 20260510023203 | 25 | 86 | 6.4 | 14.5 | 0.00 | 0.03 | 0.03 | 91 | 1014.4 |
| 20260510023103 | 25 | 76 | 4.8 | 14.5 | 0.00 | 0.03 | 0.03 | 91 | 1014.3 |
| 20260510023003 | 25 | 73 | 6.4 | 14.5 | 0.00 | 0.03 | 0.03 | 91 | 1014.3 |
| 20260510022902 | 25 | 102 | 6.4 | 14.5 | 0.00 | 0.03 | 0.03 | 91 | 1014.1 |
| 20260510022802 | 25 | 63 | 6.4 | 14.5 | 0.00 | 0.03 | 0.03 | 91 | 1014.1 |
| 20260510022702 | 25 | 71 | 6.4 | 14.5 | 0.00 | 0.03 | 0.03 | 91 | 1014.0 |
| 20260510022602 | 25 | 82 | 6.4 | 14.5 | 0.00 | 0.03 | 0.03 | 91 | 1014.0 |
| 20260510022504 | 25 | 79 | 8.0 | 14.5 | 0.00 | 0.03 | 0.03 | 91 | 1014.0 |
| 20260510022403 | 25 | 89 | 8.0 | 14.5 | 0.00 | 0.03 | 0.03 | 91 | 1014.0 |
| 20260510022306 | 25 | 66 | 6.4 | 14.5 | 0.00 | 0.03 | 0.03 | 91 | 1014.0 |
| 20260510022202 | 25 | 82 | 8.0 | 14.5 | 0.00 | 0.03 | 0.03 | 91 | 1014.0 |
| 20260510022105 | 25 | 73 | 8.0 | 14.5 | 0.00 | 0.03 | 0.03 | 91 | 1014.0 |
| 20260510022002 | 25 | 73 | 4.8 | 14.5 | 0.00 | 0.03 | 0.03 | 91 | 1014.0 |
| 20260510021904 | 25 | 69 | 3.2 | 16.1 | 0.00 | 0.03 | 0.03 | 91 | 1013.9 |
| 20260510021802 | 25 | 96 | 4.8 | 16.1 | 0.00 | 0.03 | 0.03 | 91 | 1013.9 |
| 20260510021704 | 25 | 90 | 4.8 | 16.1 | 0.00 | 0.03 | 0.03 | 91 | 1013.9 |
| 20260510021603 | 25 | 61 | 6.4 | 16.1 | 0.00 | 0.03 | 0.03 | 91 | 1013.7 |
| 20260510021504 | 25 | 61 | 6.4 | 19.3 | 0.00 | 0.03 | 0.03 | 91 | 1013.8 |
| 20260510021404 | 25 | 61 | 6.4 | 19.3 | 0.00 | 0.03 | 0.03 | 91 | 1013.7 |
| 20260510021304 | 25 | 65 | 6.4 | 19.3 | 0.00 | 0.03 | 0.03 | 91 | 1013.8 |
| 20260510021203 | 25 | 68 | 4.8 | 19.3 | 0.00 | 0.03 | 0.03 | 91 | 1013.8 |
| 20260510021103 | 26 | 102 | 6.4 | 19.3 | 0.00 | 0.03 | 0.03 | 91 | 1013.8 |
| 20260510021002 | 26 | 58 | 6.4 | 19.3 | 0.00 | 0.03 | 0.03 | 91 | 1013.7 |
| 20260510020902 | 26 | 66 | 4.8 | 19.3 | 0.00 | 0.03 | 0.03 | 91 | 1013.7 |
| 20260510020804 | 26 | 85 | 6.4 | 19.3 | 0.00 | 0.03 | 0.03 | 91 | 1013.6 |
| 20260510020702 | 26 | 62 | 8.0 | 19.3 | 0.00 | 0.03 | 0.03 | 91 | 1013.6 |
| 20260510020603 | 26 | 114 | 6.4 | 19.3 | 0.00 | 0.03 | 0.03 | 91 | 1013.5 |
| 20260510020504 | 26 | 76 | 6.4 | 11.3 | 0.00 | 0.03 | 0.03 | 91 | 1013.5 |
| 20260510020403 | 26 | 138 | 4.8 | 11.3 | 0.00 | 0.03 | 0.03 | 91 | 1013.4 |
| 20260510020302 | 26 | 90 | 4.8 | 11.3 | 0.00 | 0.03 | 0.03 | 91 | 1013.3 |
| 20260510020202 | 26 | 65 | 3.2 | 11.3 | 0.00 | 0.03 | 0.03 | 90 | 1013.3 |
| 20260510020003 | 25 | 85 | 6.4 | 11.3 | 0.00 | 0.03 | 0.03 | 90 | 1013.3 |
| 20260510015904 | 25 | 116 | 4.8 | 8.0 | 0.00 | 0.03 | 0.03 | 90 | 1013.2 |
| 20260510015802 | 25 | 75 | 3.2 | 8.0 | 0.00 | 0.03 | 0.03 | 90 | 1013.1 |
| 20260510015703 | 25 | 71 | 3.2 | 8.0 | 0.00 | 0.03 | 0.03 | 90 | 1013.1 |
| 20260510015604 | 25 | 63 | 3.2 | 8.0 | 0.00 | 0.03 | 0.03 | 90 | 1013.1 |
| 20260510015502 | 25 | 73 | 3.2 | 8.0 | 0.00 | 0.03 | 0.03 | 90 | 1013.1 |
| 20260510015404 | 25 | 30 | 3.2 | 8.0 | 0.00 | 0.03 | 0.03 | 89 | 1013.1 |
| 20260510015306 | 25 | 78 | 3.2 | 6.4 | 0.00 | 0.03 | 0.03 | 89 | 1013.2 |
| 20260510015203 | 25 | 69 | 1.6 | 6.4 | 0.00 | 0.03 | 0.03 | 89 | 1013.0 |
| 20260510015102 | 25 | 69 | 3.2 | 6.4 | 0.00 | 0.03 | 0.03 | 89 | 1013.0 |
| 20260510015003 | 25 | 152 | 3.2 | 6.4 | 0.00 | 0.03 | 0.03 | 89 | 1013.0 |
| 20260510014902 | 25 | 69 | 3.2 | 6.4 | 0.00 | 0.03 | 0.03 | 89 | 1012.9 |
| 20260510014802 | 25 | 75 | 3.2 | 6.4 | 0.00 | 0.03 | 0.03 | 90 | 1012.8 |
| 20260510014704 | 25 | 75 | 3.2 | 6.4 | 0.00 | 0.03 | 0.03 | 90 | 1012.8 |
| 20260510014603 | 24 | 76 | 1.6 | 6.4 | 0.00 | 0.03 | 0.03 | 90 | 1012.8 |
| 20260510014503 | 24 | 147 | 0.0 | 1.6 | 0.00 | 0.03 | 0.03 | 90 | 1012.8 |
| 20260510014403 | 24 | 169 | 0.0 | 0.0 | 0.00 | 0.03 | 0.03 | 89 | 1012.7 |
| 20260510014302 | 24 | 169 | 0.0 | 0.0 | 0.00 | 0.03 | 0.03 | 89 | 1012.6 |
| 20260510014202 | 24 | 169 | 0.0 | 0.0 | 0.00 | 0.03 | 0.03 | 89 | 1012.6 |
| 20260510014103 | 24 | 169 | 0.0 | 0.0 | 0.00 | 0.03 | 0.03 | 88 | 1012.5 |
| 20260510014004 | 24 | 169 | 0.0 | 0.0 | 0.00 | 0.03 | 0.03 | 88 | 1012.4 |
| 20260510013904 | 24 | 169 | 0.0 | 0.0 | 0.00 | 0.03 | 0.03 | 88 | 1012.4 |
| 20260510013804 | 24 | 169 | 0.0 | 0.0 | 0.00 | 0.03 | 0.03 | 88 | 1012.3 |
| 20260510013703 | 24 | 169 | 0.0 | 0.0 | 0.00 | 0.03 | 0.03 | 88 | 1012.4 |
| 20260510013604 | 24 | 169 | 0.0 | 0.0 | 0.00 | 0.03 | 0.03 | 88 | 1012.3 |
| 20260510013503 | 24 | 169 | 0.0 | 0.0 | 0.00 | 0.03 | 0.03 | 88 | 1012.4 |
| 20260510013401 | 24 | 169 | 0.0 | 0.0 | 0.00 | 0.03 | 0.03 | 88 | 1012.3 |
| 20260510013302 | 24 | 169 | 0.0 | 0.0 | 0.03 | 0.03 | 0.03 | 88 | 1012.3 |
| 20260510013204 | 24 | 169 | 0.0 | 0.0 | 0.03 | 0.03 | 0.03 | 88 | 1012.2 |
| 20260510013103 | 24 | 169 | 0.0 | 0.0 | 0.03 | 0.03 | 0.03 | 88 | 1012.2 |
| 20260510013004 | 24 | 169 | 0.0 | 0.0 | 0.03 | 0.03 | 0.03 | 88 | 1012.2 |
| 20260510012902 | 24 | 169 | 0.0 | 0.0 | 0.03 | 0.03 | 0.03 | 88 | 1012.2 |
| 20260510012803 | 24 | 169 | 0.0 | 0.0 | 0.03 | 0.03 | 0.03 | 88 | 1012.2 |
| 20260510012703 | 24 | 169 | 0.0 | 0.0 | 0.03 | 0.03 | 0.03 | 88 | 1012.2 |
| 20260510012602 | 23 | 169 | 0.0 | 0.0 | 0.03 | 0.03 | 0.03 | 88 | 1012.1 |
| 20260510012504 | 23 | 169 | 0.0 | 0.0 | 0.03 | 0.03 | 0.03 | 88 | 1012.1 |
| 20260510012403 | 23 | 169 | 0.0 | 0.0 | 0.03 | 0.03 | 0.03 | 88 | 1012.1 |
| 20260510012306 | 23 | 169 | 0.0 | 0.0 | 0.03 | 0.03 | 0.03 | 88 | 1012.0 |
| 20260510012203 | 23 | 169 | 0.0 | 0.0 | 0.03 | 0.03 | 0.03 | 88 | 1012.0 |
| 20260510012103 | 23 | 169 | 0.0 | 0.0 | 0.03 | 0.03 | 0.03 | 87 | 1011.9 |
| 20260510012004 | 23 | 169 | 0.0 | 0.0 | 0.03 | 0.03 | 0.03 | 87 | 1012.0 |
| 20260510011904 | 23 | 169 | 0.0 | 0.0 | 0.03 | 0.03 | 0.03 | 87 | 1012.0 |
| 20260510011804 | 23 | 169 | 0.0 | 0.0 | 0.03 | 0.03 | 0.03 | 87 | 1012.0 |
| 20260510011703 | 23 | 169 | 0.0 | 0.0 | 0.03 | 0.03 | 0.03 | 87 | 1012.1 |
| 20260510011604 | 23 | 169 | 0.0 | 0.0 | 0.03 | 0.03 | 0.03 | 87 | 1012.0 |
| 20260510011503 | 23 | 169 | 0.0 | 0.0 | 0.03 | 0.03 | 0.03 | 87 | 1011.9 |
| 20260510011402 | 23 | 169 | 0.0 | 0.0 | 0.03 | 0.03 | 0.03 | 87 | 1011.9 |
| 20260510011304 | 23 | 169 | 0.0 | 0.0 | 0.03 | 0.03 | 0.03 | 87 | 1011.8 |
| 20260510011202 | 23 | 169 | 0.0 | 1.6 | 0.03 | 0.03 | 0.03 | 87 | 1011.8 |
| 20260510011103 | 23 | 169 | 0.0 | 3.2 | 0.03 | 0.03 | 0.03 | 87 | 1011.7 |
| 20260510011002 | 23 | 169 | 0.0 | 3.2 | 0.03 | 0.03 | 0.03 | 87 | 1011.7 |
| 20260510010901 | 23 | 169 | 0.0 | 3.2 | 0.03 | 0.03 | 0.03 | 87 | 1011.7 |
| 20260510010802 | 23 | 169 | 0.0 | 3.2 | 0.03 | 0.03 | 0.03 | 87 | 1011.7 |
| 20260510010702 | 23 | 169 | 0.0 | 3.2 | 0.03 | 0.03 | 0.03 | 87 | 1011.6 |
| 20260510010604 | 23 | 169 | 0.0 | 3.2 | 0.03 | 0.03 | 0.03 | 87 | 1011.6 |
| 20260510010502 | 23 | 169 | 0.0 | 3.2 | 0.03 | 0.03 | 0.03 | 87 | 1011.6 |
| 20260510010404 | 23 | 169 | 0.0 | 3.2 | 0.03 | 0.03 | 0.03 | 87 | 1011.6 |
| 20260510010304 | 23 | 169 | 1.6 | 3.2 | 0.03 | 0.03 | 0.03 | 87 | 1011.7 |
| 20260510010203 | 23 | 169 | 1.6 | 3.2 | 0.03 | 0.03 | 0.03 | 87 | 1011.6 |
| 20260510010003 | 23 | 169 | 0.0 | 3.2 | 0.03 | 0.00 | 0.03 | 87 | 1011.7 |
| 20260510005903 | 23 | 169 | 0.0 | 3.2 | 0.03 | 0.00 | 0.03 | 87 | 1011.7 |
| 20260510005804 | 23 | 169 | 0.0 | 3.2 | 0.03 | 0.00 | 0.03 | 87 | 1011.6 |
| 20260510005703 | 23 | 169 | 0.0 | 3.2 | 0.03 | 0.00 | 0.03 | 86 | 1011.6 |
| 20260510005602 | 23 | 169 | 0.0 | 3.2 | 0.03 | 0.00 | 0.03 | 86 | 1011.5 |
| 20260510005503 | 23 | 169 | 0.0 | 3.2 | 0.03 | 0.00 | 0.03 | 85 | 1011.5 |
| 20260510005401 | 23 | 169 | 0.0 | 3.2 | 0.03 | 0.00 | 0.03 | 85 | 1011.5 |
| 20260510005259 | 23 | 169 | 0.0 | 3.2 | 0.03 | 0.00 | 0.03 | 84 | 1011.4 |
| 20260510005158 | 23 | 169 | 0.0 | 3.2 | 0.03 | 0.00 | 0.03 | 84 | 1011.5 |
| 20260510005057 | 23 | 169 | 0.0 | 1.6 | 0.03 | 0.00 | 0.03 | 84 | 1011.6 |
| 20260510004955 | 23 | 169 | 0.0 | 1.6 | 0.03 | 0.00 | 0.03 | 84 | 1011.6 |
| 20260510004854 | 23 | 169 | 0.0 | 1.6 | 0.03 | 0.00 | 0.03 | 84 | 1011.6 |
| 20260510004752 | 23 | 169 | 0.0 | 3.2 | 0.03 | 0.00 | 0.03 | 84 | 1011.6 |
| 20260510004651 | 23 | 169 | 0.0 | 3.2 | 0.03 | 0.00 | 0.03 | 83 | 1011.6 |
| 20260510004549 | 23 | 169 | 0.0 | 3.2 | 0.03 | 0.00 | 0.03 | 83 | 1011.6 |
| 20260510004447 | 23 | 169 | 0.0 | 3.2 | 0.03 | 0.00 | 0.03 | 83 | 1011.5 |
| 20260510004345 | 23 | 169 | 1.6 | 6.4 | 0.03 | 0.00 | 0.03 | 82 | 1011.6 |
| 20260510004243 | 24 | 169 | 1.6 | 6.4 | 0.03 | 0.00 | 0.03 | 81 | 1011.4 |
| 20260510004142 | 24 | 169 | 0.0 | 6.4 | 0.03 | 0.00 | 0.03 | 81 | 1011.4 |
| 20260510004040 | 24 | 169 | 0.0 | 6.4 | 0.03 | 0.00 | 0.03 | 81 | 1011.3 |
| 20260510003939 | 24 | 169 | 1.6 | 6.4 | 0.03 | 0.00 | 0.03 | 80 | 1011.3 |
| 20260510003839 | 25 | 169 | 1.6 | 6.4 | 0.03 | 0.00 | 0.03 | 80 | 1011.2 |
| 20260510003736 | 25 | 169 | 1.6 | 6.4 | 0.03 | 0.00 | 0.03 | 79 | 1011.3 |
| 20260510003636 | 25 | 169 | 1.6 | 6.4 | 0.03 | 0.00 | 0.03 | 77 | 1011.3 |
| 20260510003532 | 25 | 169 | 3.2 | 9.7 | 0.03 | 0.00 | 0.03 | 77 | 1011.3 |
| 20260510003433 | 25 | 149 | 1.6 | 9.7 | 0.03 | 0.00 | 0.03 | 77 | 1011.2 |
| 20260510003330 | 26 | 212 | 0.0 | 9.7 | 0.00 | 0.00 | 0.00 | 76 | 1011.4 |
| 20260510003228 | 26 | 212 | 3.2 | 11.3 | 0.00 | 0.00 | 0.00 | 75 | 1011.4 |
| 20260510003125 | 26 | 212 | 3.2 | 11.3 | 0.00 | 0.00 | 0.00 | 73 | 1011.5 |
| 20260510003006 | 26 | 104 | 1.6 | 11.3 | 0.00 | 0.00 | 0.00 | 73 | 1011.5 |
| 20260510002903 | 26 | 155 | 3.2 | 11.3 | 0.00 | 0.00 | 0.00 | 72 | 1011.6 |
| 20260510002803 | 27 | 155 | 4.8 | 11.3 | 0.00 | 0.00 | 0.00 | 71 | 1011.5 |
| 20260510002703 | 27 | 154 | 3.2 | 11.3 | 0.00 | 0.00 | 0.00 | 70 | 1011.7 |
| 20260510002603 | 27 | 87 | 3.2 | 11.3 | 0.00 | 0.00 | 0.00 | 69 | 1011.7 |
| 20260510002504 | 27 | 89 | 3.2 | 11.3 | 0.00 | 0.00 | 0.00 | 69 | 1011.7 |
| 20260510002401 | 27 | 96 | 6.4 | 11.3 | 0.00 | 0.00 | 0.00 | 68 | 1011.6 |
| 20260510002306 | 27 | 214 | 4.8 | 11.3 | 0.00 | 0.00 | 0.00 | 68 | 1011.6 |
| 20260510002202 | 27 | 49 | 1.6 | 9.7 | 0.00 | 0.00 | 0.00 | 66 | 1011.8 |
| 20260510002103 | 27 | 166 | 1.6 | 8.0 | 0.00 | 0.00 | 0.00 | 66 | 1011.7 |
| 20260510002003 | 27 | 166 | 1.6 | 8.0 | 0.00 | 0.00 | 0.00 | 66 | 1011.6 |
| 20260510001902 | 27 | 82 | 1.6 | 8.0 | 0.00 | 0.00 | 0.00 | 66 | 1011.6 |
| 20260510001804 | 27 | 350 | 1.6 | 9.7 | 0.00 | 0.00 | 0.00 | 66 | 1011.5 |
| 20260510001705 | 28 | 142 | 3.2 | 14.5 | 0.00 | 0.00 | 0.00 | 66 | 1011.4 |
| 20260510001602 | 28 | 316 | 4.8 | 14.5 | 0.00 | 0.00 | 0.00 | 67 | 1011.4 |
| 20260510001504 | 28 | 238 | 4.8 | 14.5 | 0.00 | 0.00 | 0.00 | 65 | 1011.5 |
| 20260510001402 | 28 | 0 | 3.2 | 14.5 | 0.00 | 0.00 | 0.00 | 65 | 1011.5 |
| 20260510001303 | 28 | 235 | 4.8 | 14.5 | 0.00 | 0.00 | 0.00 | 64 | 1011.5 |
| 20260510001202 | 28 | 172 | 4.8 | 16.1 | 0.00 | 0.00 | 0.00 | 65 | 1011.5 |
| 20260510001104 | 28 | 228 | 4.8 | 16.1 | 0.00 | 0.00 | 0.00 | 64 | 1011.5 |
| 20260510001002 | 28 | 257 | 4.8 | 16.1 | 0.00 | 0.00 | 0.00 | 65 | 1011.5 |
| 20260510000902 | 28 | 282 | 4.8 | 16.1 | 0.00 | 0.00 | 0.00 | 66 | 1011.4 |
| 20260510000803 | 28 | 124 | 4.8 | 16.1 | 0.00 | 0.00 | 0.00 | 66 | 1011.4 |
| 20260510000702 | 28 | 169 | 4.8 | 16.1 | 0.00 | 0.00 | 0.00 | 66 | 1011.3 |
| 20260510000603 | 28 | 7 | 4.8 | 16.1 | 0.00 | 0.00 | 0.00 | 68 | 1011.3 |
| 20260510000504 | 28 | 292 | 6.4 | 16.1 | 0.00 | 0.00 | 0.00 | 68 | 1011.4 |
| 20260510000404 | 29 | 295 | 6.4 | 16.1 | 0.00 | 0.00 | 0.00 | 68 | 1011.4 |
| 20260510000304 | 29 | 235 | 6.4 | 16.1 | 0.00 | 0.00 | 0.00 | 76 | 1011.4 |
| 20260510000204 | 29 | 320 | 3.2 | 8.0 | 0.00 | 0.00 | 0.00 | 76 | 1011.4 |
| 20260510000004 | 30 | 76 | 1.6 | 3.2 | 0.00 | 0.00 | 0.00 | 74 | 1011.3 |
| 20260509235903 | 30 | 76 | 0.0 | 3.2 | 0.00 | 0.00 | 0.00 | 74 | 1011.3 |
| 20260509235803 | 30 | 75 | 0.0 | 3.2 | 0.00 | 0.00 | 0.00 | 75 | 1011.2 |
| 20260509235702 | 30 | 75 | 0.0 | 3.2 | 0.00 | 0.00 | 0.00 | 74 | 1011.2 |
| 20260509235604 | 30 | 75 | 0.0 | 3.2 | 0.00 | 0.00 | 0.00 | 74 | 1011.2 |
| 20260509235502 | 30 | 75 | 0.0 | 3.2 | 0.00 | 0.00 | 0.00 | 74 | 1011.2 |
| 20260509235403 | 30 | 75 | 0.0 | 3.2 | 0.00 | 0.00 | 0.00 | 75 | 1011.1 |
| 20260509235306 | 30 | 75 | 0.0 | 3.2 | 0.00 | 0.00 | 0.00 | 74 | 1011.1 |
| 20260509235202 | 30 | 75 | 1.6 | 4.8 | 0.00 | 0.00 | 0.00 | 74 | 1011.1 |
| 20260509235104 | 30 | 75 | 1.6 | 4.8 | 0.00 | 0.00 | 0.00 | 74 | 1011.1 |
| 20260509235003 | 30 | 75 | 0.0 | 4.8 | 0.00 | 0.00 | 0.00 | 73 | 1011.1 |
| 20260509234901 | 30 | 75 | 0.0 | 4.8 | 0.00 | 0.00 | 0.00 | 73 | 1011.0 |
| 20260509234802 | 30 | 75 | 0.0 | 4.8 | 0.00 | 0.00 | 0.00 | 72 | 1011.1 |
| 20260509234702 | 30 | 75 | 0.0 | 4.8 | 0.00 | 0.00 | 0.00 | 72 | 1011.0 |
| 20260509234601 | 30 | 75 | 0.0 | 4.8 | 0.00 | 0.00 | 0.00 | 72 | 1010.9 |
| 20260509234502 | 30 | 75 | 0.0 | 4.8 | 0.00 | 0.00 | 0.00 | 71 | 1010.8 |
| 20260509234403 | 30 | 75 | 1.6 | 4.8 | 0.00 | 0.00 | 0.00 | 71 | 1010.8 |
| 20260509234304 | 30 | 75 | 3.2 | 8.0 | 0.00 | 0.00 | 0.00 | 71 | 1010.8 |
| 20260509234204 | 30 | 75 | 1.6 | 8.0 | 0.00 | 0.00 | 0.00 | 71 | 1010.8 |
| 20260509234104 | 30 | 75 | 3.2 | 8.0 | 0.00 | 0.00 | 0.00 | 71 | 1010.8 |
| 20260509234005 | 30 | 75 | 3.2 | 8.0 | 0.00 | 0.00 | 0.00 | 71 | 1010.7 |
| 20260509233903 | 30 | 76 | 3.2 | 8.0 | 0.00 | 0.00 | 0.00 | 71 | 1010.8 |
| 20260509233802 | 30 | 75 | 1.6 | 8.0 | 0.00 | 0.00 | 0.00 | 70 | 1010.8 |
| 20260509233703 | 30 | 71 | 1.6 | 8.0 | 0.00 | 0.00 | 0.00 | 70 | 1010.7 |
| 20260509233603 | 30 | 71 | 1.6 | 8.0 | 0.00 | 0.00 | 0.00 | 70 | 1010.8 |
| 20260509233502 | 30 | 71 | 1.6 | 8.0 | 0.00 | 0.00 | 0.00 | 70 | 1010.9 |
| 20260509233403 | 30 | 71 | 3.2 | 8.0 | 0.00 | 0.00 | 0.00 | 70 | 1010.9 |
| 20260509233302 | 30 | 71 | 1.6 | 6.4 | 0.00 | 0.00 | 0.00 | 71 | 1011.0 |
| 20260509233202 | 30 | 71 | 0.0 | 3.2 | 0.00 | 0.00 | 0.00 | 72 | 1011.1 |
| 20260509233104 | 30 | 71 | 0.0 | 3.2 | 0.00 | 0.00 | 0.00 | 71 | 1011.0 |
| 20260509233005 | 30 | 71 | 0.0 | 3.2 | 0.00 | 0.00 | 0.00 | 71 | 1011.0 |
| 20260509232905 | 30 | 71 | 0.0 | 3.2 | 0.00 | 0.00 | 0.00 | 71 | 1011.1 |
| 20260509232803 | 30 | 71 | 0.0 | 3.2 | 0.00 | 0.00 | 0.00 | 72 | 1011.1 |
| 20260509232703 | 30 | 71 | 0.0 | 4.8 | 0.00 | 0.00 | 0.00 | 70 | 1011.0 |
| 20260509232603 | 30 | 71 | 0.0 | 4.8 | 0.00 | 0.00 | 0.00 | 69 | 1011.0 |
| 20260509232503 | 30 | 71 | 0.0 | 6.4 | 0.00 | 0.00 | 0.00 | 70 | 1011.0 |
| 20260509232403 | 30 | 71 | 0.0 | 6.4 | 0.00 | 0.00 | 0.00 | 70 | 1011.0 |
| 20260509232306 | 30 | 71 | 0.0 | 6.4 | 0.00 | 0.00 | 0.00 | 71 | 1010.9 |
| 20260509232202 | 30 | 71 | 0.0 | 6.4 | 0.00 | 0.00 | 0.00 | 70 | 1010.9 |
| 20260509232102 | 30 | 71 | 0.0 | 6.4 | 0.00 | 0.00 | 0.00 | 71 | 1010.9 |
| 20260509232005 | 31 | 71 | 1.6 | 6.4 | 0.00 | 0.00 | 0.00 | 70 | 1010.8 |
| 20260509231902 | 31 | 71 | 1.6 | 6.4 | 0.00 | 0.00 | 0.00 | 68 | 1010.8 |
| 20260509231802 | 31 | 71 | 1.6 | 6.4 | 0.00 | 0.00 | 0.00 | 69 | 1010.7 |
| 20260509231702 | 30 | 71 | 3.2 | 6.4 | 0.00 | 0.00 | 0.00 | 68 | 1010.8 |
| 20260509231557 | 30 | 71 | 3.2 | 6.4 | 0.00 | 0.00 | 0.00 | 68 | 1010.9 |
| 20260509231457 | 30 | 68 | 1.6 | 4.8 | 0.00 | 0.00 | 0.00 | 69 | 1010.8 |
| 20260509231353 | 30 | 38 | 1.6 | 4.8 | 0.00 | 0.00 | 0.00 | 69 | 1010.9 |
| 20260509231251 | 30 | 32 | 1.6 | 4.8 | 0.00 | 0.00 | 0.00 | 69 | 1010.9 |
| 20260509231152 | 30 | 32 | 1.6 | 4.8 | 0.00 | 0.00 | 0.00 | 69 | 1011.0 |
| 20260509231050 | 30 | 30 | 1.6 | 6.4 | 0.00 | 0.00 | 0.00 | 70 | 1011.0 |
| 20260509230948 | 30 | 25 | 1.6 | 6.4 | 0.00 | 0.00 | 0.00 | 69 | 1011.0 |
| 20260509230846 | 31 | 16 | 0.0 | 6.4 | 0.00 | 0.00 | 0.00 | 69 | 1011.0 |
| 20260509230744 | 31 | 28 | 0.0 | 6.4 | 0.00 | 0.00 | 0.00 | 71 | 1011.0 |
| 20260509230643 | 31 | 28 | 0.0 | 8.0 | 0.00 | 0.00 | 0.00 | 70 | 1011.1 |
| 20260509230542 | 31 | 34 | 1.6 | 8.0 | 0.00 | 0.00 | 0.00 | 69 | 1011.0 |
| 20260509230439 | 31 | 34 | 1.6 | 8.0 | 0.00 | 0.00 | 0.00 | 69 | 1010.9 |
| 20260509230339 | 31 | 35 | 3.2 | 8.0 | 0.00 | 0.00 | 0.00 | 68 | 1010.9 |
| 20260509230237 | 31 | 35 | 3.2 | 8.0 | 0.00 | 0.00 | 0.00 | 68 | 1010.8 |
| 20260509230136 | 31 | 35 | 3.2 | 8.0 | 0.00 | 0.00 | 0.00 | 69 | 1010.9 |
| 20260509230034 | 31 | 35 | 3.2 | 8.0 | 0.00 | 0.00 | 0.00 | 69 | 1010.8 |
| 20260509225934 | 30 | 35 | 3.2 | 8.0 | 0.00 | 0.00 | 0.00 | 70 | 1010.9 |
| 20260509225831 | 30 | 35 | 3.2 | 8.0 | 0.00 | 0.00 | 0.00 | 70 | 1010.8 |
| 20260509225731 | 30 | 35 | 3.2 | 8.0 | 0.00 | 0.00 | 0.00 | 70 | 1010.8 |
| 20260509225631 | 30 | 35 | 3.2 | 8.0 | 0.00 | 0.00 | 0.00 | 71 | 1010.8 |
| 20260509225531 | 30 | 51 | 3.2 | 8.0 | 0.00 | 0.00 | 0.00 | 71 | 1010.8 |
| 20260509225431 | 30 | 51 | 1.6 | 8.0 | 0.00 | 0.00 | 0.00 | 71 | 1010.8 |
| 20260509225331 | 30 | 30 | 1.6 | 8.0 | 0.00 | 0.00 | 0.00 | 72 | 1010.8 |
| 20260509225233 | 30 | 30 | 1.6 | 8.0 | 0.00 | 0.00 | 0.00 | 72 | 1010.8 |
| 20260509225131 | 30 | 30 | 3.2 | 8.0 | 0.00 | 0.00 | 0.00 | 74 | 1010.9 |
| 20260509225032 | 29 | 28 | 3.2 | 8.0 | 0.00 | 0.00 | 0.00 | 74 | 1010.8 |
| 20260509224932 | 29 | 28 | 0.0 | 1.6 | 0.00 | 0.00 | 0.00 | 74 | 1010.8 |
| 20260509224831 | 29 | 28 | 0.0 | 0.0 | 0.00 | 0.00 | 0.00 | 75 | 1010.9 |
| 20260509224731 | 29 | 28 | 0.0 | 0.0 | 0.00 | 0.00 | 0.00 | 75 | 1010.8 |
| 20260509224631 | 29 | 28 | 0.0 | 0.0 | 0.00 | 0.00 | 0.00 | 75 | 1010.8 |
| 20260509224533 | 29 | 28 | 0.0 | 0.0 | 0.00 | 0.00 | 0.00 | 74 | 1010.8 |
| 20260509224432 | 29 | 28 | 0.0 | 0.0 | 0.00 | 0.00 | 0.00 | 74 | 1010.8 |
| 20260509224331 | 29 | 28 | 0.0 | 0.0 | 0.00 | 0.00 | 0.00 | 74 | 1010.9 |
| 20260509224231 | 29 | 28 | 0.0 | 0.0 | 0.00 | 0.00 | 0.00 | 75 | 1010.8 |
| 20260509224131 | 29 | 28 | 0.0 | 0.0 | 0.00 | 0.00 | 0.00 | 75 | 1010.8 |
| 20260509224031 | 29 | 28 | 0.0 | 0.0 | 0.00 | 0.00 | 0.00 | 75 | 1010.9 |
| 20260509223931 | 29 | 28 | 0.0 | 1.6 | 0.00 | 0.00 | 0.00 | 75 | 1010.8 |
| 20260509223831 | 29 | 28 | 0.0 | 1.6 | 0.00 | 0.00 | 0.00 | 75 | 1010.8 |
| 20260509223731 | 29 | 28 | 0.0 | 1.6 | 0.00 | 0.00 | 0.00 | 75 | 1010.8 |
| 20260509223631 | 29 | 28 | 0.0 | 1.6 | 0.00 | 0.00 | 0.00 | 75 | 1010.7 |
| 20260509223532 | 30 | 28 | 0.0 | 1.6 | 0.00 | 0.00 | 0.00 | 75 | 1010.7 |
| 20260509223431 | 30 | 28 | 0.0 | 1.6 | 0.00 | 0.00 | 0.00 | 75 | 1010.7 |
| 20260509223331 | 30 | 28 | 0.0 | 1.6 | 0.00 | 0.00 | 0.00 | 75 | 1010.8 |
| 20260509223231 | 30 | 28 | 0.0 | 1.6 | 0.00 | 0.00 | 0.00 | 75 | 1010.7 |
| 20260509223132 | 30 | 28 | 0.0 | 1.6 | 0.00 | 0.00 | 0.00 | 74 | 1010.8 |
| 20260509223031 | 30 | 28 | 0.0 | 1.6 | 0.00 | 0.00 | 0.00 | 74 | 1010.8 |
| 20260509222931 | 30 | 28 | 0.0 | 1.6 | 0.00 | 0.00 | 0.00 | 74 | 1010.8 |
| 20260509222831 | 30 | 28 | 0.0 | 1.6 | 0.00 | 0.00 | 0.00 | 73 | 1010.8 |
| 20260509222731 | 30 | 28 | 0.0 | 1.6 | 0.00 | 0.00 | 0.00 | 73 | 1010.8 |
| 20260509222631 | 30 | 28 | 0.0 | 0.0 | 0.00 | 0.00 | 0.00 | 71 | 1010.7 |
| 20260509222532 | 30 | 28 | 0.0 | 0.0 | 0.00 | 0.00 | 0.00 | 71 | 1010.7 |
| 20260509222430 | 31 | 28 | 0.0 | 0.0 | 0.00 | 0.00 | 0.00 | 70 | 1010.7 |
| 20260509222331 | 31 | 28 | 0.0 | 0.0 | 0.00 | 0.00 | 0.00 | 70 | 1010.8 |
| 20260509222232 | 31 | 28 | 0.0 | 0.0 | 0.00 | 0.00 | 0.00 | 69 | 1010.8 |
| 20260509222132 | 31 | 28 | 0.0 | 0.0 | 0.00 | 0.00 | 0.00 | 66 | 1010.7 |
| 20260509222035 | 30 | 28 | 0.0 | 0.0 | 0.00 | 0.00 | 0.00 | 69 | 1010.7 |
| 20260509221932 | 30 | 28 | 0.0 | 0.0 | 0.00 | 0.00 | 0.00 | 69 | 1010.6 |
| 20260509221831 | 30 | 28 | 0.0 | 0.0 | 0.00 | 0.00 | 0.00 | 69 | 1010.7 |
| 20260509221732 | 30 | 28 | 0.0 | 0.0 | 0.00 | 0.00 | 0.00 | 69 | 1010.6 |
| 20260509221632 | 30 | 28 | 0.0 | 0.0 | 0.00 | 0.00 | 0.00 | 69 | 1010.7 |
| 20260509221532 | 30 | 28 | 0.0 | 0.0 | 0.00 | 0.00 | 0.00 | 71 | 1010.6 |
| 20260509221432 | 30 | 28 | 0.0 | 0.0 | 0.00 | 0.00 | 0.00 | 75 | 1010.7 |
| 20260509221330 | 30 | 28 | 0.0 | 0.0 | 0.00 | 0.00 | 0.00 | 75 | 1010.8 |
| 20260509221231 | 30 | 28 | 0.0 | 1.6 | 0.00 | 0.00 | 0.00 | 74 | 1010.7 |
| 20260509221131 | 30 | 28 | 0.0 | 1.6 | 0.00 | 0.00 | 0.00 | 74 | 1010.7 |
| 20260509221031 | 30 | 28 | 0.0 | 1.6 | 0.00 | 0.00 | 0.00 | 74 | 1010.7 |
| 20260509220932 | 30 | 28 | 0.0 | 1.6 | 0.00 | 0.00 | 0.00 | 74 | 1010.7 |
| 20260509220831 | 30 | 28 | 0.0 | 1.6 | 0.00 | 0.00 | 0.00 | 74 | 1010.7 |
| 20260509220731 | 30 | 28 | 0.0 | 1.6 | 0.00 | 0.00 | 0.00 | 73 | 1010.7 |
| 20260509220631 | 30 | 28 | 0.0 | 1.6 | 0.00 | 0.00 | 0.00 | 73 | 1010.6 |
| 20260509220531 | 30 | 28 | 0.0 | 1.6 | 0.00 | 0.00 | 0.00 | 73 | 1010.7 |
| 20260509220433 | 30 | 28 | 0.0 | 1.6 | 0.00 | 0.00 | 0.00 | 72 | 1010.6 |
| 20260509220332 | 30 | 28 | 0.0 | 1.6 | 0.00 | 0.00 | 0.00 | 72 | 1010.6 |
| 20260509220231 | 30 | 28 | 0.0 | 1.6 | 0.00 | 0.00 | 0.00 | 71 | 1010.6 |
| 20260509220131 | 30 | 28 | 1.6 | 3.2 | 0.00 | 0.00 | 0.00 | 72 | 1010.7 |
| 20260509220036 | 30 | 28 | 1.6 | 3.2 | 0.00 | 0.00 | 0.00 | 72 | 1010.7 |
| 20260509215929 | 30 | 28 | 1.6 | 3.2 | 0.00 | 0.00 | 0.00 | 70 | 1010.6 |
| 20260509215829 | 30 | 28 | 0.0 | 3.2 | 0.00 | 0.00 | 0.00 | 70 | 1010.7 |
| 20260509215729 | 30 | 28 | 0.0 | 3.2 | 0.00 | 0.00 | 0.00 | 72 | 1010.6 |
| 20260509215627 | 30 | 28 | 0.0 | 3.2 | 0.00 | 0.00 | 0.00 | 72 | 1010.6 |
| 20260509215528 | 30 | 28 | 0.0 | 3.2 | 0.00 | 0.00 | 0.00 | 71 | 1010.7 |
| 20260509215429 | 30 | 28 | 0.0 | 3.2 | 0.00 | 0.00 | 0.00 | 71 | 1010.6 |
| 20260509215327 | 30 | 28 | 1.6 | 3.2 | 0.00 | 0.00 | 0.00 | 72 | 1010.6 |
| 20260509215227 | 30 | 28 | 1.6 | 3.2 | 0.00 | 0.00 | 0.00 | 71 | 1010.7 |
| 20260509215128 | 30 | 28 | 1.6 | 3.2 | 0.00 | 0.00 | 0.00 | 72 | 1010.6 |
| 20260509215030 | 30 | 28 | 0.0 | 3.2 | 0.00 | 0.00 | 0.00 | 71 | 1010.7 |
| 20260509214927 | 30 | 28 | 0.0 | 1.6 | 0.00 | 0.00 | 0.00 | 71 | 1010.6 |
| 20260509214827 | 30 | 28 | 0.0 | 1.6 | 0.00 | 0.00 | 0.00 | 71 | 1010.6 |
| 20260509214728 | 30 | 28 | 0.0 | 3.2 | 0.00 | 0.00 | 0.00 | 70 | 1010.6 |
| 20260509214627 | 30 | 28 | 0.0 | 3.2 | 0.00 | 0.00 | 0.00 | 70 | 1010.6 |
| 20260509214529 | 30 | 28 | 0.0 | 3.2 | 0.00 | 0.00 | 0.00 | 69 | 1010.6 |
| 20260509214429 | 30 | 28 | 0.0 | 3.2 | 0.00 | 0.00 | 0.00 | 69 | 1010.7 |
| 20260509214327 | 31 | 28 | 1.6 | 4.8 | 0.00 | 0.00 | 0.00 | 68 | 1010.6 |
| 20260509214228 | 31 | 28 | 1.6 | 4.8 | 0.00 | 0.00 | 0.00 | 68 | 1010.6 |
| 20260509214129 | 31 | 28 | 1.6 | 4.8 | 0.00 | 0.00 | 0.00 | 67 | 1010.6 |
| 20260509214027 | 31 | 28 | 0.0 | 4.8 | 0.00 | 0.00 | 0.00 | 65 | 1010.6 |
| 20260509213927 | 31 | 28 | 1.6 | 4.8 | 0.00 | 0.00 | 0.00 | 65 | 1010.6 |
| 20260509213828 | 31 | 28 | 1.6 | 4.8 | 0.00 | 0.00 | 0.00 | 66 | 1010.6 |
| 20260509213729 | 31 | 28 | 0.0 | 6.4 | 0.00 | 0.00 | 0.00 | 65 | 1010.7 |
| 20260509213628 | 31 | 28 | 0.0 | 6.4 | 0.00 | 0.00 | 0.00 | 65 | 1010.7 |
| 20260509213528 | 31 | 28 | 1.6 | 6.4 | 0.00 | 0.00 | 0.00 | 66 | 1010.7 |
| 20260509213427 | 31 | 28 | 3.2 | 6.4 | 0.00 | 0.00 | 0.00 | 66 | 1010.7 |
| 20260509213328 | 31 | 28 | 3.2 | 6.4 | 0.00 | 0.00 | 0.00 | 65 | 1010.7 |
| 20260509213227 | 31 | 28 | 1.6 | 6.4 | 0.00 | 0.00 | 0.00 | 65 | 1010.7 |
| 20260509213127 | 31 | 28 | 0.0 | 6.4 | 0.00 | 0.00 | 0.00 | 66 | 1010.7 |
| 20260509213028 | 31 | 28 | 3.2 | 6.4 | 0.00 | 0.00 | 0.00 | 65 | 1010.7 |
| 20260509212927 | 31 | 28 | 3.2 | 6.4 | 0.00 | 0.00 | 0.00 | 65 | 1010.6 |
| 20260509212828 | 31 | 28 | 4.8 | 6.4 | 0.00 | 0.00 | 0.00 | 66 | 1010.7 |
| 20260509212728 | 31 | 28 | 4.8 | 6.4 | 0.00 | 0.00 | 0.00 | 65 | 1010.7 |
| 20260509212628 | 31 | 28 | 4.8 | 6.4 | 0.00 | 0.00 | 0.00 | 65 | 1010.6 |
| 20260509212526 | 31 | 28 | 6.4 | 6.4 | 0.00 | 0.00 | 0.00 | 65 | 1010.7 |
| 20260509212428 | 32 | 28 | 1.6 | 4.8 | 0.00 | 0.00 | 0.00 | 66 | 1010.6 |
| 20260509212328 | 32 | 28 | 1.6 | 4.8 | 0.00 | 0.00 | 0.00 | 65 | 1010.6 |
| 20260509212227 | 32 | 28 | 1.6 | 6.4 | 0.00 | 0.00 | 0.00 | 64 | 1010.7 |
| 20260509212127 | 32 | 28 | 1.6 | 6.4 | 0.00 | 0.00 | 0.00 | 66 | 1010.7 |
| 20260509212029 | 32 | 28 | 1.6 | 6.4 | 0.00 | 0.00 | 0.00 | 66 | 1010.7 |
| 20260509211929 | 31 | 32 | 0.0 | 6.4 | 0.00 | 0.00 | 0.00 | 66 | 1010.6 |
| 20260509211830 | 31 | 32 | 0.0 | 8.0 | 0.00 | 0.00 | 0.00 | 66 | 1010.7 |
| 20260509211729 | 31 | 32 | 0.0 | 8.0 | 0.00 | 0.00 | 0.00 | 66 | 1010.7 |
| 20260509211628 | 31 | 32 | 0.0 | 8.0 | 0.00 | 0.00 | 0.00 | 66 | 1010.7 |
| 20260509211527 | 31 | 32 | 3.2 | 8.0 | 0.00 | 0.00 | 0.00 | 66 | 1010.8 |
| 20260509211427 | 31 | 32 | 4.8 | 8.0 | 0.00 | 0.00 | 0.00 | 66 | 1010.7 |
| 20260509211328 | 31 | 32 | 4.8 | 8.0 | 0.00 | 0.00 | 0.00 | 66 | 1010.7 |
| 20260509211228 | 31 | 32 | 4.8 | 8.0 | 0.00 | 0.00 | 0.00 | 66 | 1010.8 |
| 20260509211126 | 31 | 21 | 3.2 | 8.0 | 0.00 | 0.00 | 0.00 | 66 | 1010.8 |
| 20260509211026 | 31 | 10 | 4.8 | 8.0 | 0.00 | 0.00 | 0.00 | 66 | 1010.8 |
| 20260509210927 | 31 | 0 | 4.8 | 8.0 | 0.00 | 0.00 | 0.00 | 66 | 1010.8 |
| 20260509210826 | 31 | 0 | 3.2 | 6.4 | 0.00 | 0.00 | 0.00 | 67 | 1010.8 |
| 20260509210727 | 31 | 38 | 3.2 | 6.4 | 0.00 | 0.00 | 0.00 | 66 | 1010.8 |
| 20260509210627 | 31 | 0 | 3.2 | 6.4 | 0.00 | 0.00 | 0.00 | 66 | 1010.8 |
| 20260509210528 | 31 | 0 | 3.2 | 6.4 | 0.00 | 0.00 | 0.00 | 66 | 1010.9 |
| 20260509210427 | 32 | 0 | 3.2 | 6.4 | 0.00 | 0.00 | 0.00 | 66 | 1010.8 |
| 20260509210327 | 31 | 347 | 3.2 | 8.0 | 0.00 | 0.00 | 0.00 | 66 | 1010.8 |
| 20260509210206 | 31 | 347 | 3.2 | 8.0 | 0.00 | 0.00 | 0.00 | 66 | 1010.9 |
| 20260509210104 | 31 | 0 | 3.2 | 8.0 | 0.00 | 0.00 | 0.00 | 66 | 1010.8 |
| 20260509210002 | 31 | 0 | 3.2 | 8.0 | 0.00 | 0.00 | 0.00 | 66 | 1010.8 |
| 20260509205903 | 31 | 289 | 3.2 | 8.0 | 0.00 | 0.00 | 0.00 | 66 | 1010.9 |
| 20260509205802 | 31 | 282 | 3.2 | 8.0 | 0.00 | 0.00 | 0.00 | 65 | 1010.9 |
| 20260509205703 | 31 | 276 | 1.6 | 8.0 | 0.00 | 0.00 | 0.00 | 65 | 1011.1 |
| 20260509205604 | 31 | 278 | 3.2 | 8.0 | 0.00 | 0.00 | 0.00 | 65 | 1011.0 |
| 20260509205502 | 31 | 274 | 4.8 | 8.0 | 0.00 | 0.00 | 0.00 | 65 | 1011.0 |
| 20260509205403 | 31 | 274 | 4.8 | 8.0 | 0.00 | 0.00 | 0.00 | 66 | 1011.0 |
| 20260509205307 | 31 | 281 | 3.2 | 8.0 | 0.00 | 0.00 | 0.00 | 66 | 1011.0 |
| 20260509205203 | 31 | 271 | 3.2 | 8.0 | 0.00 | 0.00 | 0.00 | 67 | 1011.0 |
| 20260509205102 | 31 | 268 | 3.2 | 8.0 | 0.00 | 0.00 | 0.00 | 65 | 1011.0 |
| 20260509205002 | 31 | 265 | 4.8 | 8.0 | 0.00 | 0.00 | 0.00 | 65 | 1011.0 |
| 20260509204902 | 31 | 266 | 3.2 | 8.0 | 0.00 | 0.00 | 0.00 | 65 | 1011.1 |
| 20260509204803 | 31 | 266 | 3.2 | 8.0 | 0.00 | 0.00 | 0.00 | 66 | 1011.1 |
| 20260509204703 | 31 | 23 | 3.2 | 8.0 | 0.00 | 0.00 | 0.00 | 66 | 1011.1 |
| 20260509204603 | 31 | 23 | 3.2 | 9.7 | 0.00 | 0.00 | 0.00 | 68 | 1011.1 |
| 20260509204504 | 31 | 23 | 3.2 | 9.7 | 0.00 | 0.00 | 0.00 | 67 | 1011.1 |
| 20260509204403 | 31 | 23 | 3.2 | 11.3 | 0.00 | 0.00 | 0.00 | 67 | 1011.1 |
| 20260509204303 | 31 | 28 | 1.6 | 11.3 | 0.00 | 0.00 | 0.00 | 66 | 1011.1 |
| 20260509204202 | 31 | 28 | 3.2 | 11.3 | 0.00 | 0.00 | 0.00 | 67 | 1011.1 |
| 20260509204103 | 31 | 28 | 3.2 | 11.3 | 0.00 | 0.00 | 0.00 | 67 | 1011.1 |
| 20260509204002 | 31 | 0 | 3.2 | 11.3 | 0.00 | 0.00 | 0.00 | 66 | 1011.2 |
| 20260509203904 | 31 | 0 | 3.2 | 11.3 | 0.00 | 0.00 | 0.00 | 67 | 1011.1 |
| 20260509203802 | 31 | 0 | 4.8 | 11.3 | 0.00 | 0.00 | 0.00 | 66 | 1011.1 |
| 20260509203702 | 31 | 355 | 8.0 | 11.3 | 0.00 | 0.00 | 0.00 | 65 | 1011.2 |
| 20260509203602 | 31 | 269 | 8.0 | 11.3 | 0.00 | 0.00 | 0.00 | 67 | 1011.2 |
| 20260509203505 | 31 | 258 | 8.0 | 11.3 | 0.00 | 0.00 | 0.00 | 66 | 1011.1 |
| 20260509203403 | 31 | 262 | 6.4 | 9.7 | 0.00 | 0.00 | 0.00 | 66 | 1011.2 |
| 20260509203303 | 31 | 266 | 6.4 | 9.7 | 0.00 | 0.00 | 0.00 | 65 | 1011.2 |
| 20260509203203 | 31 | 266 | 6.4 | 9.7 | 0.00 | 0.00 | 0.00 | 65 | 1011.2 |
| 20260509203102 | 31 | 266 | 4.8 | 9.7 | 0.00 | 0.00 | 0.00 | 66 | 1011.2 |
| 20260509203002 | 31 | 350 | 3.2 | 4.8 | 0.00 | 0.00 | 0.00 | 65 | 1011.2 |
| 20260509202903 | 31 | 354 | 1.6 | 4.8 | 0.00 | 0.00 | 0.00 | 66 | 1011.1 |
| 20260509202802 | 31 | 357 | 1.6 | 4.8 | 0.00 | 0.00 | 0.00 | 64 | 1011.2 |
| 20260509202702 | 31 | 357 | 1.6 | 4.8 | 0.00 | 0.00 | 0.00 | 65 | 1011.2 |
| 20260509202604 | 31 | 355 | 1.6 | 4.8 | 0.00 | 0.00 | 0.00 | 66 | 1011.2 |
| 20260509202504 | 31 | 355 | 3.2 | 4.8 | 0.00 | 0.00 | 0.00 | 65 | 1011.2 |
| 20260509202404 | 31 | 355 | 3.2 | 4.8 | 0.00 | 0.00 | 0.00 | 65 | 1011.3 |
| 20260509202306 | 31 | 10 | 1.6 | 4.8 | 0.00 | 0.00 | 0.00 | 66 | 1011.3 |
| 20260509202204 | 31 | 11 | 0.0 | 4.8 | 0.00 | 0.00 | 0.00 | 66 | 1011.3 |
| 20260509202103 | 31 | 11 | 1.6 | 4.8 | 0.00 | 0.00 | 0.00 | 66 | 1011.3 |
| 20260509202004 | 31 | 11 | 1.6 | 4.8 | 0.00 | 0.00 | 0.00 | 66 | 1011.3 |
| 20260509201903 | 31 | 272 | 1.6 | 4.8 | 0.00 | 0.00 | 0.00 | 68 | 1011.3 |
| 20260509201803 | 31 | 272 | 1.6 | 4.8 | 0.00 | 0.00 | 0.00 | 68 | 1011.3 |
| 20260509201639 | 31 | 252 | 1.6 | 6.4 | 0.00 | 0.00 | 0.00 | 66 | 1011.3 |
| 20260509201539 | 31 | 252 | 3.2 | 6.4 | 0.00 | 0.00 | 0.00 | 65 | 1011.3 |
| 20260509201437 | 31 | 252 | 3.2 | 6.4 | 0.00 | 0.00 | 0.00 | 66 | 1011.4 |
| 20260509201335 | 31 | 252 | 1.6 | 6.4 | 0.00 | 0.00 | 0.00 | 67 | 1011.4 |
| 20260509201234 | 31 | 262 | 1.6 | 6.4 | 0.00 | 0.00 | 0.00 | 66 | 1011.4 |
| 20260509201132 | 31 | 262 | 3.2 | 6.4 | 0.00 | 0.00 | 0.00 | 66 | 1011.4 |
| 20260509201033 | 31 | 262 | 3.2 | 8.0 | 0.00 | 0.00 | 0.00 | 64 | 1011.4 |
| 20260509200931 | 31 | 262 | 1.6 | 9.7 | 0.00 | 0.00 | 0.00 | 67 | 1011.4 |
| 20260509200834 | 31 | 262 | 3.2 | 9.7 | 0.00 | 0.00 | 0.00 | 66 | 1011.4 |
| 20260509200731 | 31 | 262 | 4.8 | 9.7 | 0.00 | 0.00 | 0.00 | 65 | 1011.4 |
| 20260509200632 | 31 | 251 | 3.2 | 9.7 | 0.00 | 0.00 | 0.00 | 64 | 1011.5 |
| 20260509200532 | 31 | 251 | 1.6 | 9.7 | 0.00 | 0.00 | 0.00 | 66 | 1011.5 |
| 20260509200434 | 31 | 251 | 1.6 | 9.7 | 0.00 | 0.00 | 0.00 | 66 | 1011.5 |
| 20260509200332 | 31 | 251 | 3.2 | 9.7 | 0.00 | 0.00 | 0.00 | 68 | 1011.5 |
| 20260509200231 | 31 | 251 | 4.8 | 9.7 | 0.00 | 0.00 | 0.00 | 66 | 1011.5 |
| 20260509200133 | 31 | 251 | 6.4 | 9.7 | 0.00 | 0.00 | 0.00 | 65 | 1011.6 |
| 20260509200033 | 31 | 255 | 8.0 | 11.3 | 0.00 | 0.00 | 0.00 | 66 | 1011.6 |
| 20260509195933 | -17 | 0.0 | 11.3 | 0.00 | 0.00 | 0.00 | 1011.6 | ||
| 20260509195832 | -17 | 0.0 | 11.3 | 0.00 | 0.00 | 0.00 | 1011.6 | ||
| 20260509195733 | -17 | 290 | 6.4 | 11.3 | 0.00 | 0.00 | 0.00 | 1011.6 | |
| 20260509195633 | 31 | 290 | 6.4 | 11.3 | 0.00 | 0.00 | 0.00 | 66 | 1011.7 |
| 20260509195532 | 31 | 290 | 6.4 | 11.3 | 0.00 | 0.00 | 0.00 | 66 | 1011.7 |
| 20260509195432 | 31 | 290 | 6.4 | 11.3 | 0.00 | 0.00 | 0.00 | 66 | 1011.7 |
| 20260509195332 | 31 | 290 | 6.4 | 11.3 | 0.00 | 0.00 | 0.00 | 66 | 1011.7 |
| 20260509195232 | 31 | 272 | 6.4 | 11.3 | 0.00 | 0.00 | 0.00 | 66 | 1011.7 |
| 20260509195131 | 31 | 271 | 8.0 | 11.3 | 0.00 | 0.00 | 0.00 | 66 | 1011.7 |
| 20260509195031 | 31 | 254 | 4.8 | 9.7 | 0.00 | 0.00 | 0.00 | 67 | 1011.6 |
| 20260509194932 | 31 | 258 | 3.2 | 9.7 | 0.00 | 0.00 | 0.00 | 67 | 1011.7 |
| 20260509194831 | 31 | 227 | 1.6 | 9.7 | 0.00 | 0.00 | 0.00 | 67 | 1011.6 |
| 20260509194732 | 31 | 227 | 1.6 | 9.7 | 0.00 | 0.00 | 0.00 | 66 | 1011.5 |
| 20260509194632 | 31 | 209 | 3.2 | 9.7 | 0.00 | 0.00 | 0.00 | 67 | 1011.6 |
| 20260509194532 | 31 | 209 | 3.2 | 9.7 | 0.00 | 0.00 | 0.00 | 67 | 1011.6 |
| 20260509194432 | 31 | 209 | 3.2 | 11.3 | 0.00 | 0.00 | 0.00 | 67 | 1011.7 |
| 20260509194331 | 31 | 210 | 3.2 | 11.3 | 0.00 | 0.00 | 0.00 | 67 | 1011.7 |
| 20260509194231 | 31 | 254 | 3.2 | 11.3 | 0.00 | 0.00 | 0.00 | 67 | 1011.7 |
| 20260509194132 | 31 | 254 | 3.2 | 11.3 | 0.00 | 0.00 | 0.00 | 66 | 1011.7 |
| 20260509194032 | 31 | 329 | 4.8 | 11.3 | 0.00 | 0.00 | 0.00 | 66 | 1011.8 |
| 20260509193933 | 31 | 285 | 6.4 | 11.3 | 0.00 | 0.00 | 0.00 | 66 | 1011.7 |
| 20260509193832 | 30 | 268 | 4.8 | 11.3 | 0.00 | 0.00 | 0.00 | 67 | 1011.8 |
| 20260509193731 | 30 | 264 | 4.8 | 11.3 | 0.00 | 0.00 | 0.00 | 67 | 1011.8 |
| 20260509193633 | 30 | 254 | 6.4 | 11.3 | 0.00 | 0.00 | 0.00 | 67 | 1011.8 |
| 20260509193531 | 30 | 285 | 9.7 | 11.3 | 0.00 | 0.00 | 0.00 | 67 | 1011.8 |
| 20260509193429 | 30 | 255 | 6.4 | 11.3 | 0.00 | 0.00 | 0.00 | 66 | 1011.8 |
| 20260509193325 | 30 | 274 | 1.6 | 8.0 | 0.00 | 0.03 | 0.00 | 67 | 1011.9 |
| 20260509193223 | 30 | 274 | 1.6 | 8.0 | 0.00 | 0.03 | 0.00 | 67 | 1011.8 |
| 20260509193124 | 30 | 274 | 3.2 | 8.0 | 0.00 | 0.03 | 0.00 | 69 | 1011.9 |
| 20260509193022 | 30 | 274 | 3.2 | 8.0 | 0.00 | 0.03 | 0.00 | 71 | 1011.9 |
| 20260509192924 | 30 | 274 | 1.6 | 8.0 | 0.00 | 0.03 | 0.00 | 71 | 1011.9 |
| 20260509192823 | 30 | 274 | 1.6 | 8.0 | 0.00 | 0.03 | 0.00 | 69 | 1011.9 |
| 20260509192724 | 30 | 274 | 3.2 | 8.0 | 0.00 | 0.03 | 0.00 | 69 | 1011.9 |
| 20260509192623 | 30 | 274 | 6.4 | 8.0 | 0.00 | 0.03 | 0.00 | 69 | 1012.0 |
| 20260509192523 | 30 | 272 | 4.8 | 8.0 | 0.00 | 0.03 | 0.00 | 70 | 1011.9 |
| 20260509192424 | 30 | 269 | 3.2 | 8.0 | 0.00 | 0.03 | 0.00 | 70 | 1011.9 |
| 20260509192323 | 30 | 274 | 4.8 | 8.0 | 0.00 | 0.03 | 0.00 | 70 | 1011.9 |
| 20260509192222 | 30 | 275 | 6.4 | 8.0 | 0.00 | 0.03 | 0.00 | 69 | 1011.9 |
| 20260509192124 | 30 | 274 | 6.4 | 8.0 | 0.00 | 0.03 | 0.00 | 69 | 1011.9 |
| 20260509192023 | 30 | 261 | 6.4 | 8.0 | 0.00 | 0.03 | 0.00 | 70 | 1011.8 |
| 20260509191922 | 30 | 259 | 6.4 | 8.0 | 0.00 | 0.03 | 0.00 | 70 | 1011.9 |
| 20260509191823 | 30 | 266 | 6.4 | 6.4 | 0.00 | 0.03 | 0.00 | 71 | 1011.9 |
| 20260509191723 | 30 | 268 | 3.2 | 6.4 | 0.00 | 0.03 | 0.00 | 71 | 1011.9 |
| 20260509191623 | 30 | 268 | 3.2 | 6.4 | 0.00 | 0.03 | 0.00 | 71 | 1012.0 |
| 20260509191523 | 30 | 268 | 3.2 | 6.4 | 0.00 | 0.03 | 0.00 | 71 | 1012.0 |
| 20260509191425 | 30 | 274 | 3.2 | 6.4 | 0.00 | 0.03 | 0.00 | 72 | 1012.1 |
| 20260509191324 | 30 | 23 | 3.2 | 6.4 | 0.00 | 0.03 | 0.00 | 71 | 1012.0 |
| 20260509191225 | 30 | 23 | 3.2 | 6.4 | 0.00 | 0.03 | 0.00 | 72 | 1012.1 |
| 20260509191122 | 30 | 23 | 1.6 | 6.4 | 0.00 | 0.03 | 0.00 | 71 | 1012.1 |
| 20260509191023 | 30 | 27 | 1.6 | 8.0 | 0.00 | 0.03 | 0.00 | 71 | 1012.1 |
| 20260509190924 | 30 | 27 | 1.6 | 8.0 | 0.00 | 0.03 | 0.00 | 71 | 1012.1 |
| 20260509190824 | 30 | 27 | 1.6 | 8.0 | 0.00 | 0.03 | 0.00 | 71 | 1012.1 |
| 20260509190723 | 30 | 27 | 1.6 | 8.0 | 0.00 | 0.03 | 0.00 | 71 | 1012.1 |
| 20260509190622 | 30 | 25 | 0.0 | 11.3 | 0.00 | 0.03 | 0.00 | 70 | 1012.1 |
| 20260509190522 | 30 | 25 | 1.6 | 11.3 | 0.00 | 0.03 | 0.00 | 71 | 1012.2 |
| 20260509190422 | 30 | 25 | 3.2 | 11.3 | 0.00 | 0.03 | 0.00 | 72 | 1012.2 |
| 20260509190324 | 30 | 8 | 3.2 | 11.3 | 0.00 | 0.03 | 0.00 | 71 | 1012.1 |
| 20260509190222 | 30 | 0 | 4.8 | 11.3 | 0.00 | 0.03 | 0.00 | 72 | 1012.2 |
| 20260509190123 | 30 | 0 | 3.2 | 11.3 | 0.00 | 0.03 | 0.00 | 71 | 1012.3 |
| 20260509190022 | 30 | 321 | 3.2 | 11.3 | 0.00 | 0.03 | 0.00 | 71 | 1012.3 |
| 20260509185923 | 30 | 279 | 4.8 | 11.3 | 0.00 | 0.03 | 0.00 | 71 | 1012.2 |
| 20260509185811 | 30 | 279 | 6.4 | 11.3 | 0.00 | 0.03 | 0.00 | 70 | 1012.2 |
| 20260509185711 | 30 | 279 | 8.0 | 11.3 | 0.00 | 0.03 | 0.00 | 71 | 1012.1 |
| 20260509185603 | 30 | 268 | 8.0 | 9.7 | 0.00 | 0.03 | 0.00 | 70 | 1012.1 |
| 20260509185505 | 30 | 283 | 6.4 | 9.7 | 0.00 | 0.03 | 0.00 | 70 | 1012.1 |
| 20260509185402 | 30 | 272 | 4.8 | 8.0 | 0.00 | 0.03 | 0.00 | 72 | 1012.1 |
| 20260509185306 | 30 | 266 | 1.6 | 8.0 | 0.00 | 0.03 | 0.00 | 72 | 1012.1 |
| 20260509185202 | 30 | 278 | 0.0 | 0.0 | 0.00 | 0.03 | 0.00 | 72 | 1012.2 |
| 20260509185102 | 30 | 278 | 0.0 | 3.2 | 0.00 | 0.03 | 0.00 | 72 | 1012.2 |
| 20260509185005 | 30 | 278 | 0.0 | 3.2 | 0.00 | 0.03 | 0.00 | 73 | 1012.2 |
| 20260509184902 | 30 | 278 | 0.0 | 3.2 | 0.00 | 0.03 | 0.00 | 74 | 1012.3 |
| 20260509184802 | 30 | 257 | 0.0 | 3.2 | 0.00 | 0.03 | 0.00 | 74 | 1012.3 |
| 20260509184704 | 30 | 257 | 0.0 | 3.2 | 0.00 | 0.03 | 0.00 | 76 | 1012.2 |
| 20260509184603 | 29 | 257 | 0.0 | 3.2 | 0.00 | 0.03 | 0.00 | 76 | 1012.3 |
| 20260509184505 | 29 | 257 | 0.0 | 6.4 | 0.00 | 0.03 | 0.00 | 76 | 1012.1 |
| 20260509184402 | 29 | 257 | 0.0 | 6.4 | 0.00 | 0.03 | 0.00 | 75 | 1012.2 |
| 20260509184304 | 29 | 257 | 0.0 | 6.4 | 0.00 | 0.03 | 0.00 | 75 | 1012.1 |
| 20260509184202 | 29 | 257 | 1.6 | 6.4 | 0.00 | 0.03 | 0.00 | 77 | 1012.2 |
| 20260509184102 | 29 | 257 | 1.6 | 6.4 | 0.00 | 0.03 | 0.00 | 77 | 1012.1 |
| 20260509184003 | 29 | 258 | 1.6 | 6.4 | 0.00 | 0.03 | 0.00 | 77 | 1012.2 |
| 20260509183903 | 29 | 258 | 1.6 | 6.4 | 0.00 | 0.03 | 0.00 | 77 | 1012.3 |
| 20260509183802 | 29 | 259 | 3.2 | 6.4 | 0.00 | 0.03 | 0.00 | 76 | 1012.2 |
| 20260509183702 | 29 | 254 | 3.2 | 6.4 | 0.00 | 0.03 | 0.00 | 77 | 1012.3 |
| 20260509183602 | 29 | 254 | 3.2 | 8.0 | 0.00 | 0.03 | 0.00 | 77 | 1012.3 |
| 20260509183503 | 29 | 278 | 1.6 | 8.0 | 0.00 | 0.03 | 0.00 | 75 | 1012.3 |
| 20260509183404 | 29 | 282 | 0.0 | 8.0 | 0.00 | 0.03 | 0.00 | 76 | 1012.4 |
| 20260509183303 | 29 | 282 | 1.6 | 8.0 | 0.00 | 0.03 | 0.00 | 75 | 1012.3 |
| 20260509183203 | 29 | 282 | 1.6 | 8.0 | 0.00 | 0.03 | 0.00 | 74 | 1012.3 |
| 20260509183103 | 29 | 279 | 0.0 | 8.0 | 0.00 | 0.03 | 0.00 | 74 | 1012.4 |
| 20260509183004 | 29 | 281 | 3.2 | 8.0 | 0.00 | 0.03 | 0.00 | 77 | 1012.4 |
| 20260509182904 | 29 | 281 | 3.2 | 8.0 | 0.00 | 0.03 | 0.00 | 77 | 1012.5 |
| 20260509182802 | 29 | 281 | 4.8 | 8.0 | 0.00 | 0.03 | 0.00 | 75 | 1012.5 |
| 20260509182703 | 29 | 279 | 3.2 | 8.0 | 0.00 | 0.03 | 0.00 | 75 | 1012.5 |
| 20260509182603 | 29 | 314 | 1.6 | 6.4 | 0.00 | 0.03 | 0.00 | 76 | 1012.5 |
| 20260509182502 | 29 | 314 | 1.6 | 6.4 | 0.00 | 0.03 | 0.00 | 77 | 1012.5 |
| 20260509182402 | 29 | 314 | 1.6 | 6.4 | 0.00 | 0.03 | 0.00 | 78 | 1012.5 |
| 20260509182306 | 29 | 320 | 1.6 | 6.4 | 0.00 | 0.03 | 0.00 | 76 | 1012.6 |
| 20260509182202 | 29 | 320 | 1.6 | 6.4 | 0.00 | 0.03 | 0.00 | 76 | 1012.5 |
| 20260509182103 | 29 | 103 | 1.6 | 6.4 | 0.00 | 0.03 | 0.00 | 75 | 1012.6 |
| 20260509182003 | 29 | 103 | 1.6 | 6.4 | 0.00 | 0.03 | 0.00 | 75 | 1012.5 |
| 20260509181902 | 29 | 347 | 3.2 | 6.4 | 0.00 | 0.03 | 0.00 | 75 | 1012.6 |
| 20260509181801 | 29 | 130 | 1.6 | 9.7 | 0.00 | 0.03 | 0.00 | 75 | 1012.6 |
| 20260509181702 | 29 | 252 | 1.6 | 9.7 | 0.00 | 0.03 | 0.00 | 74 | 1012.6 |
| 20260509181603 | 29 | 3 | 3.2 | 9.7 | 0.00 | 0.03 | 0.00 | 75 | 1012.6 |
| 20260509181504 | 29 | 3 | 3.2 | 9.7 | 0.00 | 0.03 | 0.00 | 76 | 1012.7 |
| 20260509181405 | 29 | 120 | 3.2 | 9.7 | 0.00 | 0.03 | 0.00 | 75 | 1012.7 |
| 20260509181302 | 29 | 116 | 3.2 | 9.7 | 0.00 | 0.03 | 0.00 | 77 | 1012.7 |
| 20260509181202 | 29 | 169 | 3.2 | 9.7 | 0.00 | 0.03 | 0.00 | 76 | 1012.7 |
| 20260509181103 | 29 | 134 | 3.2 | 9.7 | 0.00 | 0.03 | 0.00 | 77 | 1012.7 |
| 20260509181005 | 29 | 169 | 4.8 | 9.7 | 0.00 | 0.03 | 0.00 | 75 | 1012.8 |
| 20260509180903 | 29 | 168 | 4.8 | 9.7 | 0.00 | 0.03 | 0.00 | 74 | 1012.8 |
| 20260509180802 | 29 | 299 | 3.2 | 9.7 | 0.00 | 0.03 | 0.00 | 76 | 1012.9 |
| 20260509180701 | 29 | 327 | 3.2 | 9.7 | 0.00 | 0.03 | 0.00 | 76 | 1012.9 |
| 20260509180603 | 29 | 182 | 1.6 | 9.7 | 0.00 | 0.03 | 0.00 | 74 | 1012.9 |
| 20260509180504 | 29 | 62 | 3.2 | 9.7 | 0.00 | 0.03 | 0.00 | 75 | 1013.0 |
| 20260509180403 | 29 | 62 | 3.2 | 9.7 | 0.00 | 0.03 | 0.00 | 77 | 1013.0 |
| 20260509180302 | 29 | 62 | 3.2 | 9.7 | 0.00 | 0.03 | 0.00 | 75 | 1013.0 |
| 20260509180204 | 29 | 62 | 3.2 | 9.7 | 0.00 | 0.03 | 0.00 | 74 | 1013.0 |
| 20260509180003 | 29 | 65 | 4.8 | 11.3 | 0.00 | 0.03 | 0.00 | 75 | 1013.0 |
| 20260509175903 | 29 | 276 | 4.8 | 14.5 | 0.00 | 0.03 | 0.00 | 76 | 1013.0 |
| 20260509175803 | 29 | 124 | 3.2 | 14.5 | 0.00 | 0.03 | 0.00 | 76 | 1013.0 |
| 20260509175703 | 29 | 0 | 3.2 | 14.5 | 0.00 | 0.03 | 0.00 | 78 | 1013.1 |
| 20260509175604 | 29 | 288 | 4.8 | 14.5 | 0.00 | 0.03 | 0.00 | 76 | 1013.0 |
| 20260509175505 | 29 | 286 | 4.8 | 14.5 | 0.00 | 0.03 | 0.00 | 76 | 1013.1 |
| 20260509175404 | 29 | 183 | 4.8 | 14.5 | 0.00 | 0.03 | 0.00 | 76 | 1013.1 |
| 20260509175306 | 29 | 271 | 4.8 | 14.5 | 0.00 | 0.03 | 0.00 | 77 | 1013.1 |
| 20260509175204 | 29 | 309 | 4.8 | 14.5 | 0.00 | 0.03 | 0.00 | 76 | 1013.0 |
| 20260509175103 | 29 | 235 | 6.4 | 14.5 | 0.00 | 0.03 | 0.00 | 78 | 1013.1 |
| 20260509175004 | 29 | 300 | 9.7 | 14.5 | 0.00 | 0.03 | 0.00 | 76 | 1013.0 |
| 20260509174902 | 29 | 265 | 1.6 | 8.0 | 0.00 | 0.03 | 0.00 | 77 | 1012.9 |
| 20260509174804 | 29 | 134 | 1.6 | 8.0 | 0.00 | 0.03 | 0.00 | 77 | 1013.0 |
| 20260509174703 | 29 | 134 | 1.6 | 8.0 | 0.00 | 0.03 | 0.00 | 78 | 1013.0 |
| 20260509174602 | 29 | 145 | 1.6 | 8.0 | 0.00 | 0.03 | 0.00 | 77 | 1013.0 |
| 20260509174504 | 29 | 145 | 3.2 | 8.0 | 0.00 | 0.03 | 0.00 | 78 | 1013.1 |
| 20260509174403 | 29 | 145 | 3.2 | 8.0 | 0.00 | 0.03 | 0.00 | 81 | 1013.1 |
| 20260509174303 | 29 | 159 | 3.2 | 8.0 | 0.00 | 0.03 | 0.00 | 78 | 1013.2 |
| 20260509174205 | 29 | 295 | 3.2 | 6.4 | 0.00 | 0.03 | 0.00 | 80 | 1013.1 |
| 20260509174102 | 29 | 262 | 3.2 | 6.4 | 0.00 | 0.03 | 0.00 | 79 | 1013.1 |
| 20260509174003 | 29 | 251 | 3.2 | 6.4 | 0.00 | 0.03 | 0.00 | 79 | 1013.2 |
| 20260509173902 | 29 | 251 | 1.6 | 6.4 | 0.00 | 0.03 | 0.00 | 82 | 1013.2 |
| 20260509173804 | 29 | 110 | 1.6 | 6.4 | 0.00 | 0.03 | 0.00 | 80 | 1013.2 |
| 20260509173703 | 28 | 110 | 3.2 | 6.4 | 0.00 | 0.03 | 0.00 | 82 | 1013.2 |
| 20260509173602 | 28 | 111 | 1.6 | 6.4 | 0.00 | 0.03 | 0.00 | 81 | 1013.2 |
| 20260509173504 | 28 | 116 | 1.6 | 6.4 | 0.00 | 0.03 | 0.00 | 81 | 1013.2 |
| 20260509173403 | 28 | 117 | 3.2 | 6.4 | 0.00 | 0.03 | 0.00 | 81 | 1013.2 |
| 20260509173303 | 28 | 140 | 3.2 | 6.4 | 0.00 | 0.03 | 0.00 | 82 | 1013.1 |
| 20260509173201 | 28 | 93 | 1.6 | 4.8 | 0.00 | 0.03 | 0.00 | 83 | 1013.1 |
| 20260509173103 | 28 | 99 | 1.6 | 4.8 | 0.00 | 0.03 | 0.00 | 83 | 1013.2 |
| 20260509173002 | 28 | 96 | 3.2 | 4.8 | 0.00 | 0.03 | 0.00 | 82 | 1013.2 |
| 20260509172902 | 28 | 8 | 3.2 | 4.8 | 0.00 | 0.03 | 0.00 | 82 | 1013.2 |
| 20260509172804 | 28 | 237 | 1.6 | 4.8 | 0.00 | 0.03 | 0.00 | 83 | 1013.1 |
| 20260509172703 | 28 | 329 | 3.2 | 4.8 | 0.00 | 0.03 | 0.00 | 83 | 1013.2 |
| 20260509172602 | 28 | 127 | 1.6 | 4.8 | 0.00 | 0.03 | 0.00 | 83 | 1013.2 |
| 20260509172503 | 28 | 173 | 1.6 | 4.8 | 0.00 | 0.03 | 0.00 | 85 | 1013.2 |
| 20260509172403 | 28 | 176 | 1.6 | 4.8 | 0.00 | 0.03 | 0.00 | 85 | 1013.3 |
| 20260509172306 | 28 | 61 | 1.6 | 4.8 | 0.00 | 0.03 | 0.00 | 85 | 1013.3 |
| 20260509172202 | 28 | 87 | 1.6 | 4.8 | 0.00 | 0.03 | 0.00 | 84 | 1013.2 |
| 20260509172103 | 28 | 102 | 1.6 | 4.8 | 0.00 | 0.03 | 0.00 | 85 | 1013.3 |
| 20260509172002 | 28 | 102 | 3.2 | 8.0 | 0.00 | 0.03 | 0.00 | 85 | 1013.3 |
| 20260509171902 | 28 | 71 | 3.2 | 8.0 | 0.00 | 0.03 | 0.00 | 83 | 1013.3 |
| 20260509171803 | 28 | 283 | 3.2 | 8.0 | 0.00 | 0.03 | 0.00 | 84 | 1013.3 |
| 20260509171702 | 28 | 266 | 3.2 | 8.0 | 0.00 | 0.03 | 0.00 | 85 | 1013.4 |
| 20260509171602 | 28 | 266 | 3.2 | 8.0 | 0.00 | 0.03 | 0.00 | 85 | 1013.4 |
| 20260509171502 | 28 | 231 | 3.2 | 8.0 | 0.00 | 0.03 | 0.00 | 86 | 1013.3 |
| 20260509171403 | 28 | 41 | 1.6 | 8.0 | 0.00 | 0.03 | 0.00 | 85 | 1013.3 |
| 20260509171302 | 28 | 30 | 1.6 | 8.0 | 0.00 | 0.03 | 0.00 | 87 | 1013.4 |
| 20260509171203 | 27 | 162 | 3.2 | 8.0 | 0.00 | 0.03 | 0.00 | 86 | 1013.3 |
| 20260509171102 | 27 | 161 | 3.2 | 8.0 | 0.00 | 0.03 | 0.00 | 86 | 1013.3 |
| 20260509171003 | 27 | 133 | 1.6 | 6.4 | 0.00 | 0.03 | 0.00 | 87 | 1013.3 |
| 20260509170902 | 27 | 109 | 1.6 | 3.2 | 0.00 | 0.03 | 0.00 | 87 | 1013.3 |
| 20260509170804 | 27 | 109 | 1.6 | 3.2 | 0.00 | 0.03 | 0.00 | 88 | 1013.3 |
| 20260509170703 | 27 | 317 | 1.6 | 3.2 | 0.00 | 0.03 | 0.00 | 89 | 1013.4 |
| 20260509170602 | 27 | 317 | 1.6 | 3.2 | 0.00 | 0.03 | 0.00 | 89 | 1013.4 |
| 20260509170502 | 26 | 317 | 1.6 | 3.2 | 0.00 | 0.03 | 0.00 | 90 | 1013.4 |
| 20260509170404 | 26 | 317 | 1.6 | 3.2 | 0.00 | 0.03 | 0.00 | 89 | 1013.5 |
| 20260509170303 | 26 | 316 | 0.0 | 3.2 | 0.00 | 0.03 | 0.00 | 90 | 1013.4 |
| 20260509170203 | 26 | 316 | 0.0 | 3.2 | 0.00 | 0.03 | 0.00 | 91 | 1013.5 |
| 20260509170103 | 26 | 316 | 0.0 | 3.2 | 0.00 | 0.03 | 0.00 | 90 | 1013.5 |
| 20260509170004 | 26 | 316 | 0.0 | 3.2 | 0.00 | 0.03 | 0.00 | 89 | 1013.5 |
| 20260509165902 | 26 | 316 | 0.0 | 3.2 | 0.00 | 0.03 | 0.00 | 89 | 1013.6 |
| 20260509165802 | 26 | 316 | 0.0 | 3.2 | 0.00 | 0.03 | 0.00 | 88 | 1013.6 |
| 20260509165703 | 26 | 316 | 1.6 | 3.2 | 0.00 | 0.03 | 0.00 | 89 | 1013.6 |
| 20260509165604 | 26 | 316 | 1.6 | 3.2 | 0.00 | 0.03 | 0.00 | 88 | 1013.6 |
| 20260509165502 | 26 | 316 | 1.6 | 3.2 | 0.00 | 0.03 | 0.00 | 88 | 1013.6 |
| 20260509165403 | 26 | 316 | 0.0 | 1.6 | 0.00 | 0.03 | 0.00 | 89 | 1013.6 |
| 20260509165306 | 26 | 316 | 0.0 | 1.6 | 0.00 | 0.03 | 0.00 | 89 | 1013.7 |
| 20260509165203 | 26 | 261 | 0.0 | 1.6 | 0.00 | 0.03 | 0.00 | 89 | 1013.6 |
| 20260509165102 | 26 | 261 | 0.0 | 1.6 | 0.00 | 0.03 | 0.00 | 89 | 1013.6 |
| 20260509165004 | 26 | 261 | 0.0 | 1.6 | 0.00 | 0.03 | 0.00 | 90 | 1013.6 |
| 20260509164904 | 26 | 261 | 0.0 | 1.6 | 0.00 | 0.03 | 0.00 | 90 | 1013.5 |
| 20260509164802 | 26 | 261 | 0.0 | 3.2 | 0.00 | 0.03 | 0.00 | 89 | 1013.6 |
| 20260509164703 | 26 | 261 | 0.0 | 3.2 | 0.00 | 0.03 | 0.00 | 89 | 1013.5 |
| 20260509164603 | 26 | 261 | 0.0 | 3.2 | 0.00 | 0.03 | 0.00 | 90 | 1013.4 |
| 20260509164502 | 26 | 261 | 0.0 | 4.8 | 0.00 | 0.03 | 0.00 | 90 | 1013.5 |
| 20260509164403 | 26 | 261 | 0.0 | 4.8 | 0.00 | 0.03 | 0.00 | 89 | 1013.6 |
| 20260509164304 | 26 | 261 | 0.0 | 4.8 | 0.00 | 0.03 | 0.00 | 89 | 1013.6 |
| 20260509164204 | 26 | 261 | 0.0 | 4.8 | 0.00 | 0.03 | 0.00 | 89 | 1013.6 |
| 20260509164103 | 26 | 261 | 0.0 | 4.8 | 0.00 | 0.03 | 0.00 | 89 | 1013.7 |
| 20260509164003 | 26 | 261 | 1.6 | 4.8 | 0.00 | 0.03 | 0.00 | 88 | 1013.6 |
| 20260509163902 | 26 | 261 | 3.2 | 4.8 | 0.00 | 0.03 | 0.00 | 87 | 1013.6 |
| 20260509163804 | 26 | 261 | 1.6 | 4.8 | 0.00 | 0.03 | 0.00 | 87 | 1013.6 |
| 20260509163704 | 26 | 261 | 3.2 | 4.8 | 0.00 | 0.03 | 0.00 | 87 | 1013.6 |
| 20260509163602 | 26 | 261 | 3.2 | 4.8 | 0.00 | 0.03 | 0.00 | 87 | 1013.6 |
| 20260509163503 | 26 | 261 | 1.6 | 4.8 | 0.00 | 0.03 | 0.00 | 87 | 1013.6 |
| 20260509163401 | 26 | 261 | 1.6 | 4.8 | 0.00 | 0.03 | 0.00 | 87 | 1013.5 |
| 20260509163303 | 26 | 261 | 3.2 | 4.8 | 0.00 | 0.03 | 0.00 | 87 | 1013.5 |
| 20260509163202 | 26 | 261 | 3.2 | 4.8 | 0.00 | 0.03 | 0.00 | 87 | 1013.6 |
| 20260509163102 | 26 | 261 | 1.6 | 4.8 | 0.00 | 0.03 | 0.00 | 88 | 1013.6 |
| 20260509163005 | 26 | 261 | 1.6 | 4.8 | 0.00 | 0.03 | 0.00 | 88 | 1013.5 |
| 20260509162903 | 26 | 261 | 1.6 | 4.8 | 0.00 | 0.03 | 0.00 | 88 | 1013.6 |
| 20260509162803 | 26 | 261 | 1.6 | 4.8 | 0.00 | 0.03 | 0.00 | 88 | 1013.5 |
| 20260509162702 | 26 | 261 | 1.6 | 4.8 | 0.00 | 0.03 | 0.00 | 88 | 1013.6 |
| 20260509162604 | 26 | 261 | 1.6 | 6.4 | 0.00 | 0.03 | 0.00 | 88 | 1013.5 |
| 20260509162503 | 26 | 261 | 3.2 | 6.4 | 0.00 | 0.03 | 0.00 | 88 | 1013.6 |
| 20260509162403 | 26 | 261 | 3.2 | 6.4 | 0.00 | 0.03 | 0.00 | 88 | 1013.6 |
| 20260509162302 | 26 | 261 | 3.2 | 6.4 | 0.00 | 0.03 | 0.00 | 88 | 1013.6 |
| 20260509162203 | 26 | 261 | 3.2 | 6.4 | 0.00 | 0.03 | 0.00 | 87 | 1013.6 |
| 20260509162102 | 26 | 261 | 3.2 | 6.4 | 0.00 | 0.03 | 0.00 | 88 | 1013.6 |
| 20260509162003 | 26 | 261 | 3.2 | 6.4 | 0.00 | 0.03 | 0.00 | 88 | 1013.6 |
| 20260509161902 | 26 | 261 | 3.2 | 6.4 | 0.00 | 0.03 | 0.00 | 87 | 1013.7 |
| 20260509161803 | 26 | 261 | 4.8 | 6.4 | 0.00 | 0.03 | 0.00 | 88 | 1013.7 |
| 20260509161703 | 26 | 261 | 4.8 | 6.4 | 0.00 | 0.03 | 0.00 | 89 | 1013.7 |
| 20260509161604 | 26 | 261 | 3.2 | 4.8 | 0.00 | 0.03 | 0.00 | 88 | 1013.8 |
| 20260509161503 | 26 | 261 | 1.6 | 3.2 | 0.00 | 0.03 | 0.00 | 88 | 1013.8 |
| 20260509161403 | 26 | 261 | 0.0 | 4.8 | 0.00 | 0.03 | 0.00 | 88 | 1013.8 |
| 20260509161302 | 26 | 261 | 0.0 | 4.8 | 0.00 | 0.03 | 0.00 | 88 | 1013.7 |
| 20260509161203 | 26 | 261 | 0.0 | 6.4 | 0.00 | 0.03 | 0.00 | 89 | 1013.7 |
| 20260509161103 | 26 | 261 | 0.0 | 6.4 | 0.00 | 0.03 | 0.00 | 89 | 1013.7 |
| 20260509161002 | 26 | 261 | 0.0 | 6.4 | 0.00 | 0.03 | 0.00 | 88 | 1013.7 |
| 20260509160904 | 26 | 261 | 0.0 | 6.4 | 0.00 | 0.03 | 0.00 | 88 | 1013.7 |
| 20260509160802 | 26 | 261 | 0.0 | 6.4 | 0.00 | 0.03 | 0.00 | 88 | 1013.6 |
| 20260509160704 | 26 | 261 | 3.2 | 6.4 | 0.00 | 0.03 | 0.00 | 88 | 1013.6 |
| 20260509160603 | 26 | 261 | 3.2 | 6.4 | 0.00 | 0.03 | 0.00 | 88 | 1013.5 |
| 20260509160502 | 26 | 261 | 3.2 | 6.4 | 0.00 | 0.03 | 0.00 | 88 | 1013.5 |
| 20260509160403 | 26 | 261 | 3.2 | 6.4 | 0.00 | 0.03 | 0.00 | 89 | 1013.6 |
| 20260509160305 | 26 | 261 | 4.8 | 6.4 | 0.00 | 0.03 | 0.00 | 89 | 1013.5 |
| 20260509160203 | 26 | 262 | 3.2 | 4.8 | 0.00 | 0.03 | 0.00 | 89 | 1013.5 |
| 20260509160104 | 26 | 44 | 0.0 | 3.2 | 0.00 | 0.03 | 0.00 | 90 | 1013.6 |
| 20260509160002 | 26 | 44 | 0.0 | 3.2 | 0.00 | 0.03 | 0.00 | 90 | 1013.7 |
| 20260509155904 | 26 | 44 | 0.0 | 3.2 | 0.00 | 0.03 | 0.00 | 90 | 1013.6 |
| 20260509155802 | 26 | 44 | 1.6 | 3.2 | 0.00 | 0.03 | 0.00 | 90 | 1013.7 |
| 20260509155702 | 26 | 44 | 1.6 | 3.2 | 0.00 | 0.03 | 0.00 | 90 | 1013.6 |
| 20260509155603 | 26 | 44 | 1.6 | 3.2 | 0.00 | 0.03 | 0.00 | 90 | 1013.7 |
| 20260509155502 | 26 | 44 | 1.6 | 4.8 | 0.00 | 0.03 | 0.00 | 90 | 1013.7 |
| 20260509155403 | 26 | 44 | 1.6 | 4.8 | 0.00 | 0.03 | 0.00 | 90 | 1013.6 |
| 20260509155306 | 26 | 44 | 1.6 | 4.8 | 0.00 | 0.03 | 0.00 | 90 | 1013.6 |
| 20260509155202 | 26 | 44 | 1.6 | 4.8 | 0.00 | 0.03 | 0.00 | 90 | 1013.6 |
| 20260509155102 | 26 | 44 | 1.6 | 4.8 | 0.00 | 0.03 | 0.00 | 90 | 1013.6 |
| 20260509155004 | 26 | 44 | 1.6 | 6.4 | 0.00 | 0.03 | 0.00 | 90 | 1013.6 |
| 20260509154903 | 26 | 44 | 1.6 | 6.4 | 0.00 | 0.03 | 0.00 | 91 | 1013.6 |
| 20260509154802 | 26 | 44 | 1.6 | 6.4 | 0.00 | 0.03 | 0.00 | 91 | 1013.7 |
| 20260509154704 | 26 | 44 | 1.6 | 6.4 | 0.00 | 0.03 | 0.00 | 91 | 1013.7 |
| 20260509154602 | 26 | 44 | 3.2 | 6.4 | 0.00 | 0.03 | 0.00 | 91 | 1013.6 |
| 20260509154504 | 26 | 44 | 1.6 | 6.4 | 0.00 | 0.03 | 0.00 | 91 | 1013.6 |
| 20260509154402 | 26 | 51 | 1.6 | 6.4 | 0.00 | 0.03 | 0.00 | 91 | 1013.6 |
| 20260509154303 | 26 | 51 | 1.6 | 6.4 | 0.00 | 0.03 | 0.00 | 91 | 1013.5 |
| 20260509154203 | 26 | 51 | 3.2 | 6.4 | 0.00 | 0.03 | 0.00 | 91 | 1013.5 |
| 20260509154103 | 26 | 51 | 3.2 | 6.4 | 0.00 | 0.03 | 0.00 | 91 | 1013.5 |
| 20260509154004 | 26 | 123 | 1.6 | 4.8 | 0.00 | 0.03 | 0.00 | 92 | 1013.4 |
| 20260509153904 | 25 | 123 | 0.0 | 4.8 | 0.00 | 0.03 | 0.00 | 92 | 1013.4 |
| 20260509153803 | 25 | 124 | 0.0 | 4.8 | 0.00 | 0.03 | 0.00 | 92 | 1013.4 |
| 20260509153703 | 26 | 124 | 0.0 | 4.8 | 0.00 | 0.03 | 0.00 | 93 | 1013.5 |
| 20260509153604 | 26 | 124 | 1.6 | 4.8 | 0.00 | 0.03 | 0.00 | 93 | 1013.6 |
| 20260509153502 | 26 | 124 | 1.6 | 4.8 | 0.00 | 0.03 | 0.00 | 93 | 1013.5 |
| 20260509153403 | 25 | 117 | 0.0 | 3.2 | 0.00 | 0.03 | 0.00 | 93 | 1013.6 |
| 20260509153304 | 25 | 116 | 1.6 | 3.2 | 0.00 | 0.03 | 0.00 | 94 | 1013.6 |
| 20260509153203 | 25 | 116 | 1.6 | 3.2 | 0.00 | 0.03 | 0.00 | 93 | 1013.6 |
| 20260509153103 | 25 | 116 | 1.6 | 3.2 | 0.00 | 0.03 | 0.00 | 93 | 1013.6 |
| 20260509153002 | 25 | 117 | 1.6 | 3.2 | 0.00 | 0.03 | 0.00 | 93 | 1013.6 |
| 20260509152903 | 25 | 117 | 1.6 | 3.2 | 0.00 | 0.03 | 0.00 | 93 | 1013.6 |
| 20260509152805 | 25 | 117 | 1.6 | 3.2 | 0.00 | 0.03 | 0.00 | 93 | 1013.6 |
| 20260509152703 | 25 | 123 | 0.0 | 3.2 | 0.00 | 0.03 | 0.00 | 94 | 1013.7 |
| 20260509152602 | 25 | 123 | 0.0 | 3.2 | 0.00 | 0.03 | 0.00 | 94 | 1013.7 |
| 20260509152504 | 25 | 123 | 0.0 | 3.2 | 0.00 | 0.03 | 0.00 | 94 | 1013.7 |
| 20260509152402 | 25 | 123 | 0.0 | 3.2 | 0.00 | 0.03 | 0.00 | 94 | 1013.7 |
| 20260509152306 | 25 | 123 | 0.0 | 3.2 | 0.00 | 0.03 | 0.00 | 94 | 1013.7 |
| 20260509152205 | 25 | 123 | 0.0 | 3.2 | 0.00 | 0.03 | 0.00 | 94 | 1013.7 |
| 20260509152102 | 25 | 123 | 0.0 | 3.2 | 0.00 | 0.03 | 0.00 | 94 | 1013.6 |
| 20260509152002 | 25 | 123 | 0.0 | 3.2 | 0.00 | 0.03 | 0.00 | 95 | 1013.6 |
| 20260509151902 | 25 | 130 | 0.0 | 0.0 | 0.00 | 0.03 | 0.00 | 95 | 1013.6 |
| 20260509151803 | 25 | 130 | 0.0 | 0.0 | 0.00 | 0.03 | 0.00 | 95 | 1013.7 |
| 20260509151701 | 25 | 130 | 0.0 | 0.0 | 0.00 | 0.03 | 0.00 | 95 | 1013.7 |
| 20260509151602 | 25 | 130 | 0.0 | 0.0 | 0.00 | 0.03 | 0.00 | 95 | 1013.7 |
| 20260509151504 | 25 | 130 | 0.0 | 0.0 | 0.00 | 0.03 | 0.00 | 95 | 1013.7 |
| 20260509151403 | 25 | 130 | 0.0 | 0.0 | 0.00 | 0.03 | 0.00 | 96 | 1013.7 |
| 20260509151304 | 25 | 130 | 0.0 | 1.6 | 0.00 | 0.03 | 0.00 | 95 | 1013.7 |
| 20260509151203 | 25 | 130 | 0.0 | 1.6 | 0.00 | 0.03 | 0.00 | 96 | 1013.7 |
| 20260509151103 | 25 | 130 | 0.0 | 1.6 | 0.00 | 0.03 | 0.00 | 96 | 1013.6 |
| 20260509151002 | 25 | 130 | 0.0 | 1.6 | 0.00 | 0.03 | 0.00 | 96 | 1013.6 |
| 20260509150902 | 25 | 130 | 0.0 | 1.6 | 0.00 | 0.03 | 0.00 | 96 | 1013.6 |
| 20260509150802 | 25 | 130 | 0.0 | 1.6 | 0.00 | 0.03 | 0.00 | 96 | 1013.5 |
| 20260509150703 | 25 | 130 | 0.0 | 1.6 | 0.00 | 0.03 | 0.00 | 96 | 1013.6 |
| 20260509150601 | 25 | 130 | 0.0 | 1.6 | 0.00 | 0.03 | 0.00 | 96 | 1013.5 |
| 20260509150501 | 25 | 130 | 0.0 | 1.6 | 0.00 | 0.03 | 0.00 | 96 | 1013.6 |
| 20260509150403 | 25 | 130 | 0.0 | 1.6 | 0.00 | 0.03 | 0.00 | 96 | 1013.5 |
| 20260509150302 | 25 | 130 | 0.0 | 1.6 | 0.00 | 0.03 | 0.00 | 96 | 1013.5 |
| 20260509150203 | 25 | 130 | 0.0 | 1.6 | 0.00 | 0.03 | 0.00 | 97 | 1013.6 |
| 20260509150104 | 25 | 131 | 0.0 | 1.6 | 0.00 | 0.03 | 0.00 | 97 | 1013.5 |
| 20260509150003 | 25 | 131 | 0.0 | 1.6 | 0.00 | 0.03 | 0.00 | 97 | 1013.5 |
| 20260509145904 | 24 | 131 | 0.0 | 1.6 | 0.00 | 0.03 | 0.00 | 97 | 1013.5 |
| 20260509145803 | 24 | 131 | 0.0 | 1.6 | 0.00 | 0.03 | 0.00 | 97 | 1013.5 |
| 20260509145704 | 24 | 130 | 0.0 | 1.6 | 0.00 | 0.03 | 0.00 | 97 | 1013.4 |
| 20260509145603 | 24 | 131 | 0.0 | 1.6 | 0.00 | 0.03 | 0.00 | 97 | 1013.4 |
| 20260509145502 | 24 | 131 | 0.0 | 1.6 | 0.00 | 0.03 | 0.00 | 97 | 1013.4 |
| 20260509145404 | 24 | 131 | 0.0 | 0.0 | 0.00 | 0.03 | 0.00 | 97 | 1013.3 |
| 20260509145305 | 24 | 131 | 0.0 | 0.0 | 0.00 | 0.03 | 0.00 | 97 | 1013.4 |
| 20260509145204 | -17 | 0.0 | 0.0 | 0.00 | 0.03 | 0.00 | 1013.3 | ||
| 20260509145103 | -17 | 0.0 | 0.0 | 0.00 | 0.03 | 0.00 | 1013.3 | ||
| 20260509145004 | -17 | 0.0 | 0.0 | 0.00 | 0.03 | 0.00 | 1013.3 | ||
| 20260509144903 | 24 | 131 | 0.0 | 0.0 | 0.00 | 0.03 | 0.00 | 98 | 1013.3 |
| 20260509144804 | 24 | 131 | 0.0 | 0.0 | 0.00 | 0.03 | 0.00 | 98 | 1013.3 |
| 20260509144704 | 24 | 131 | 0.0 | 0.0 | 0.00 | 0.03 | 0.00 | 98 | 1013.3 |
| 20260509144603 | 24 | 131 | 0.0 | 0.0 | 0.00 | 0.03 | 0.00 | 98 | 1013.3 |
| 20260509144504 | 24 | 131 | 0.0 | 1.6 | 0.00 | 0.03 | 0.00 | 98 | 1013.3 |
| 20260509144403 | 24 | 131 | 0.0 | 3.2 | 0.00 | 0.03 | 0.00 | 98 | 1013.4 |
| 20260509144303 | 24 | 131 | 0.0 | 3.2 | 0.00 | 0.03 | 0.00 | 98 | 1013.4 |
| 20260509144200 | 24 | 135 | 0.0 | 3.2 | 0.00 | 0.03 | 0.00 | 98 | 1013.4 |
| 20260509144100 | 24 | 135 | 0.0 | 3.2 | 0.00 | 0.03 | 0.00 | 98 | 1013.5 |
| 20260509143956 | 24 | 135 | 0.0 | 3.2 | 0.00 | 0.03 | 0.00 | 98 | 1013.5 |
| 20260509143856 | 24 | 137 | 0.0 | 3.2 | 0.00 | 0.03 | 0.00 | 98 | 1013.5 |
| 20260509143754 | 24 | 135 | 0.0 | 3.2 | 0.00 | 0.03 | 0.00 | 98 | 1013.5 |
| 20260509143647 | 24 | 135 | 0.0 | 3.2 | 0.00 | 0.03 | 0.00 | 98 | 1013.3 |
| 20260509143546 | 24 | 116 | 1.6 | 3.2 | 0.00 | 0.03 | 0.00 | 98 | 1013.3 |
| 20260509143437 | 24 | 41 | 0.0 | 1.6 | 0.00 | 0.03 | 0.00 | 98 | 1013.3 |
| 20260509143333 | 24 | 41 | 0.0 | 1.6 | 0.00 | 0.03 | 0.00 | 98 | 1013.3 |
| 20260509143231 | 24 | 41 | 0.0 | 1.6 | 0.00 | 0.03 | 0.00 | 98 | 1013.3 |
| 20260509143131 | 24 | 41 | 0.0 | 3.2 | 0.00 | 0.03 | 0.00 | 98 | 1013.4 |
| 20260509143031 | 24 | 41 | 0.0 | 3.2 | 0.00 | 0.03 | 0.00 | 98 | 1013.3 |
| 20260509142933 | 24 | 41 | 0.0 | 3.2 | 0.00 | 0.03 | 0.00 | 98 | 1013.2 |
| 20260509142832 | 24 | 41 | 0.0 | 3.2 | 0.00 | 0.03 | 0.00 | 98 | 1013.2 |
| 20260509142732 | 24 | 41 | 0.0 | 3.2 | 0.00 | 0.03 | 0.00 | 98 | 1013.2 |
| 20260509142632 | 24 | 41 | 0.0 | 3.2 | 0.00 | 0.03 | 0.00 | 98 | 1013.3 |
| 20260509142532 | 24 | 41 | 1.6 | 3.2 | 0.00 | 0.03 | 0.00 | 98 | 1013.3 |
| 20260509142432 | 24 | 41 | 1.6 | 3.2 | 0.00 | 0.03 | 0.00 | 98 | 1013.2 |
| 20260509142332 | 24 | 41 | 1.6 | 3.2 | 0.00 | 0.03 | 0.00 | 98 | 1013.1 |
| 20260509142229 | 24 | 41 | 1.6 | 3.2 | 0.00 | 0.03 | 0.00 | 98 | 1013.3 |
| 20260509142127 | 24 | 41 | 1.6 | 3.2 | 0.00 | 0.03 | 0.00 | 98 | 1013.2 |
| 20260509142026 | 24 | 41 | 0.0 | 1.6 | 0.00 | 0.03 | 0.00 | 98 | 1013.2 |
| 20260509141923 | 24 | 42 | 0.0 | 1.6 | 0.00 | 0.03 | 0.00 | 98 | 1013.2 |
| 20260509141822 | 24 | 47 | 0.0 | 1.6 | 0.00 | 0.03 | 0.00 | 98 | 1013.1 |
| 20260509141722 | 24 | 47 | 0.0 | 0.0 | 0.00 | 0.03 | 0.00 | 98 | 1013.2 |
| 20260509141617 | 24 | 54 | 0.0 | 1.6 | 0.00 | 0.03 | 0.00 | 98 | 1013.1 |
| 20260509141515 | 24 | 54 | 0.0 | 3.2 | 0.00 | 0.03 | 0.00 | 98 | 1013.0 |
| 20260509141415 | 24 | 54 | 0.0 | 3.2 | 0.00 | 0.03 | 0.00 | 98 | 1013.0 |
| 20260509141315 | 24 | 54 | 0.0 | 3.2 | 0.00 | 0.03 | 0.00 | 98 | 1012.9 |
| 20260509141215 | 24 | 54 | 0.0 | 3.2 | 0.00 | 0.03 | 0.00 | 98 | 1012.9 |
| 20260509141113 | 24 | 54 | 0.0 | 3.2 | 0.00 | 0.03 | 0.00 | 98 | 1012.9 |
| 20260509141014 | 24 | 54 | 0.0 | 3.2 | 0.00 | 0.03 | 0.00 | 98 | 1012.9 |
| 20260509140914 | 24 | 54 | 0.0 | 3.2 | 0.00 | 0.03 | 0.00 | 98 | 1012.9 |
| 20260509140813 | 24 | 54 | 0.0 | 3.2 | 0.00 | 0.03 | 0.00 | 98 | 1012.9 |
| 20260509140715 | 24 | 54 | 1.6 | 3.2 | 0.00 | 0.03 | 0.00 | 98 | 1012.8 |
| 20260509140614 | 24 | 54 | 1.6 | 3.2 | 0.00 | 0.03 | 0.00 | 98 | 1012.9 |
| 20260509140514 | 24 | 54 | 1.6 | 3.2 | 0.00 | 0.03 | 0.00 | 98 | 1012.9 |
| 20260509140413 | 24 | 54 | 1.6 | 3.2 | 0.00 | 0.03 | 0.00 | 98 | 1013.0 |
| 20260509140314 | 24 | 54 | 0.0 | 3.2 | 0.00 | 0.03 | 0.00 | 98 | 1013.0 |
| 20260509140215 | 24 | 54 | 0.0 | 3.2 | 0.00 | 0.03 | 0.00 | 98 | 1012.9 |
| 20260509140114 | 24 | 54 | 0.0 | 3.2 | 0.00 | 0.03 | 0.00 | 98 | 1012.8 |
| 20260509140014 | 24 | 54 | 1.6 | 3.2 | 0.00 | 0.03 | 0.00 | 98 | 1012.8 |
| 20260509135913 | 24 | 54 | 1.6 | 3.2 | 0.00 | 0.03 | 0.00 | 98 | 1012.7 |
| 20260509135813 | 24 | 54 | 0.0 | 3.2 | 0.00 | 0.03 | 0.00 | 98 | 1012.7 |
| 20260509135715 | 24 | 54 | 0.0 | 1.6 | 0.00 | 0.03 | 0.00 | 98 | 1012.7 |
| 20260509135613 | 24 | 54 | 0.0 | 1.6 | 0.00 | 0.03 | 0.00 | 98 | 1012.8 |
| 20260509135514 | 24 | 54 | 0.0 | 1.6 | 0.00 | 0.03 | 0.00 | 98 | 1012.8 |
| 20260509135413 | 24 | 37 | 0.0 | 1.6 | 0.00 | 0.03 | 0.00 | 98 | 1012.9 |
| 20260509135314 | 24 | 37 | 0.0 | 1.6 | 0.00 | 0.03 | 0.00 | 98 | 1012.8 |
| 20260509135214 | 24 | 37 | 0.0 | 1.6 | 0.00 | 0.03 | 0.00 | 98 | 1013.0 |
| 20260509135116 | 24 | 37 | 0.0 | 1.6 | 0.00 | 0.03 | 0.00 | 98 | 1013.0 |
| 20260509135015 | 24 | 37 | 0.0 | 3.2 | 0.00 | 0.03 | 0.00 | 98 | 1013.0 |
| 20260509134914 | 24 | 37 | 0.0 | 3.2 | 0.00 | 0.03 | 0.00 | 98 | 1013.0 |
| 20260509134814 | 24 | 37 | 0.0 | 3.2 | 0.00 | 0.03 | 0.00 | 98 | 1013.1 |
| 20260509134713 | 24 | 37 | 0.0 | 3.2 | 0.00 | 0.03 | 0.00 | 98 | 1013.1 |
| 20260509134615 | 24 | 37 | 0.0 | 3.2 | 0.00 | 0.03 | 0.00 | 98 | 1013.1 |
| 20260509134514 | 24 | 37 | 1.6 | 3.2 | 0.00 | 0.03 | 0.00 | 98 | 1013.2 |
| 20260509134413 | 24 | 37 | 0.0 | 3.2 | 0.00 | 0.03 | 0.00 | 98 | 1013.2 |
| 20260509134314 | 24 | 37 | 0.0 | 3.2 | 0.00 | 0.03 | 0.00 | 98 | 1013.3 |
| 20260509134213 | 24 | 37 | 0.0 | 3.2 | 0.00 | 0.03 | 0.00 | 98 | 1013.2 |
| 20260509134113 | 24 | 37 | 0.0 | 3.2 | 0.00 | 0.03 | 0.00 | 98 | 1013.2 |
| 20260509134015 | 24 | 37 | 0.0 | 1.6 | 0.00 | 0.03 | 0.00 | 98 | 1013.2 |
| 20260509133915 | 24 | 37 | 0.0 | 3.2 | 0.00 | 0.03 | 0.00 | 98 | 1013.2 |
| 20260509133814 | 24 | 37 | 0.0 | 3.2 | 0.00 | 0.03 | 0.00 | 98 | 1013.2 |
| 20260509133713 | 24 | 37 | 0.0 | 3.2 | 0.00 | 0.03 | 0.00 | 98 | 1013.2 |
| 20260509133614 | 23 | 220 | 0.0 | 3.2 | 0.00 | 0.03 | 0.00 | 98 | 1013.2 |
| 20260509133512 | 23 | 220 | 0.0 | 3.2 | 0.00 | 0.03 | 0.00 | 98 | 1013.2 |
| 20260509133415 | 23 | 220 | 0.0 | 3.2 | 0.00 | 0.03 | 0.00 | 98 | 1013.2 |
| 20260509133312 | 23 | 220 | 0.0 | 3.2 | 0.00 | 0.03 | 0.00 | 98 | 1013.3 |
| 20260509133214 | 23 | 220 | 0.0 | 3.2 | 0.00 | 0.03 | 0.00 | 98 | 1013.4 |
| 20260509133112 | 23 | 220 | 0.0 | 3.2 | 0.00 | 0.03 | 0.00 | 98 | 1013.5 |
| 20260509133011 | 23 | 220 | 0.0 | 3.2 | 0.00 | 0.03 | 0.00 | 98 | 1013.5 |
| 20260509132914 | 23 | 220 | 0.0 | 3.2 | 0.00 | 0.03 | 0.00 | 98 | 1013.5 |
| 20260509132813 | 23 | 220 | 0.0 | 3.2 | 0.00 | 0.03 | 0.00 | 98 | 1013.5 |
| 20260509132713 | 23 | 220 | 0.0 | 3.2 | 0.00 | 0.03 | 0.00 | 98 | 1013.5 |
| 20260509132612 | 23 | 220 | 0.0 | 3.2 | 0.00 | 0.03 | 0.00 | 98 | 1013.7 |
| 20260509132514 | 23 | 220 | 0.0 | 3.2 | 0.00 | 0.03 | 0.00 | 98 | 1013.6 |
| 20260509132414 | 23 | 220 | 0.0 | 3.2 | 0.00 | 0.03 | 0.00 | 98 | 1013.6 |
| 20260509132311 | 23 | 220 | 0.0 | 3.2 | 0.00 | 0.03 | 0.00 | 98 | 1013.7 |
| 20260509132211 | 23 | 220 | 0.0 | 3.2 | 0.00 | 0.03 | 0.00 | 98 | 1013.6 |
| 20260509132110 | 23 | 220 | 1.6 | 3.2 | 0.00 | 0.03 | 0.00 | 98 | 1013.5 |
| 20260509132006 | 23 | 220 | 1.6 | 3.2 | 0.00 | 0.03 | 0.00 | 98 | 1013.6 |
| 20260509131904 | 23 | 220 | 1.6 | 3.2 | 0.00 | 0.03 | 0.00 | 98 | 1013.6 |
| 20260509131803 | 23 | 220 | 0.0 | 3.2 | 0.00 | 0.03 | 0.00 | 98 | 1013.6 |
| 20260509131703 | 23 | 220 | 1.6 | 3.2 | 0.00 | 0.03 | 0.00 | 98 | 1013.6 |
| 20260509131603 | 23 | 220 | 1.6 | 3.2 | 0.00 | 0.03 | 0.00 | 98 | 1013.6 |
| 20260509131504 | 23 | 220 | 1.6 | 3.2 | 0.00 | 0.03 | 0.00 | 98 | 1013.6 |
| 20260509131404 | 23 | 220 | 1.6 | 3.2 | 0.00 | 0.03 | 0.00 | 98 | 1013.7 |
| 20260509131302 | 23 | 220 | 1.6 | 3.2 | 0.00 | 0.03 | 0.00 | 98 | 1013.7 |
| 20260509131204 | 23 | 220 | 0.0 | 3.2 | 0.00 | 0.03 | 0.00 | 98 | 1013.7 |
| 20260509131102 | 23 | 204 | 0.0 | 3.2 | 0.00 | 0.03 | 0.00 | 98 | 1013.8 |
| 20260509131005 | 23 | 203 | 1.6 | 3.2 | 0.00 | 0.03 | 0.00 | 98 | 1013.8 |
| 20260509130902 | 23 | 203 | 1.6 | 3.2 | 0.00 | 0.03 | 0.00 | 98 | 1013.8 |
| 20260509130803 | 23 | 203 | 1.6 | 3.2 | 0.00 | 0.03 | 0.00 | 98 | 1013.9 |
| 20260509130702 | 23 | 203 | 1.6 | 3.2 | 0.00 | 0.03 | 0.00 | 98 | 1013.8 |
| 20260509130604 | 23 | 203 | 0.0 | 3.2 | 0.00 | 0.03 | 0.00 | 98 | 1013.8 |
| 20260509130504 | 23 | 289 | 0.0 | 3.2 | 0.00 | 0.03 | 0.00 | 98 | 1013.8 |
| 20260509130403 | 23 | 289 | 0.0 | 3.2 | 0.00 | 0.03 | 0.00 | 98 | 1013.9 |
| 20260509130301 | 23 | 296 | 0.0 | 3.2 | 0.00 | 0.03 | 0.00 | 98 | 1013.9 |
| 20260509130202 | 23 | 226 | 1.6 | 3.2 | 0.00 | 0.03 | 0.00 | 98 | 1013.9 |
| 20260509130002 | 23 | 158 | 0.0 | 3.2 | 0.00 | 0.03 | 0.00 | 98 | 1013.9 |
| 20260509125902 | 23 | 158 | 0.0 | 3.2 | 0.00 | 0.03 | 0.00 | 98 | 1013.9 |
| 20260509125803 | 23 | 158 | 1.6 | 3.2 | 0.00 | 0.03 | 0.00 | 98 | 1013.8 |
| 20260509125704 | 23 | 158 | 1.6 | 3.2 | 0.00 | 0.03 | 0.00 | 98 | 1013.8 |
| 20260509125603 | 23 | 161 | 0.0 | 1.6 | 0.00 | 0.03 | 0.00 | 98 | 1013.9 |
| 20260509125505 | 23 | 161 | 0.0 | 1.6 | 0.00 | 0.03 | 0.00 | 98 | 1013.8 |
| 20260509125403 | 23 | 161 | 0.0 | 1.6 | 0.00 | 0.03 | 0.00 | 98 | 1013.9 |
| 20260509125307 | 23 | 161 | 0.0 | 1.6 | 0.00 | 0.03 | 0.00 | 98 | 1013.8 |
| 20260509125204 | 23 | 161 | 0.0 | 1.6 | 0.00 | 0.03 | 0.00 | 98 | 1013.9 |
| 20260509125103 | 23 | 161 | 0.0 | 1.6 | 0.00 | 0.03 | 0.00 | 98 | 1013.8 |
| 20260509125003 | 23 | 161 | 0.0 | 0.0 | 0.00 | 0.03 | 0.00 | 98 | 1013.7 |
| 20260509124903 | 23 | 0 | 0.0 | 0.0 | 0.00 | 0.03 | 0.00 | 98 | 1013.8 |
| 20260509124803 | 23 | 193 | 0.0 | 0.0 | 0.00 | 0.03 | 0.00 | 98 | 1013.7 |
| 20260509124702 | 23 | 193 | 0.0 | 0.0 | 0.00 | 0.03 | 0.00 | 98 | 1013.7 |
| 20260509124604 | 23 | 192 | 0.0 | 0.0 | 0.00 | 0.03 | 0.00 | 98 | 1013.7 |
| 20260509124503 | 23 | 190 | 0.0 | 0.0 | 0.00 | 0.03 | 0.00 | 98 | 1013.6 |
| 20260509124404 | 23 | 190 | 0.0 | 0.0 | 0.00 | 0.03 | 0.00 | 98 | 1013.5 |
| 20260509124302 | 23 | 196 | 0.0 | 0.0 | 0.00 | 0.03 | 0.00 | 98 | 1013.5 |
| 20260509124202 | 23 | 196 | 0.0 | 0.0 | 0.00 | 0.03 | 0.00 | 98 | 1013.5 |
| 20260509124103 | 23 | 196 | 0.0 | 0.0 | 0.00 | 0.03 | 0.00 | 98 | 1013.4 |
| 20260509124003 | 23 | 196 | 0.0 | 0.0 | 0.00 | 0.03 | 0.00 | 98 | 1013.5 |
| 20260509123903 | 22 | 197 | 0.0 | 0.0 | 0.00 | 0.03 | 0.00 | 98 | 1013.5 |
| 20260509123802 | 23 | 185 | 0.0 | 0.0 | 0.00 | 0.03 | 0.00 | 98 | 1013.4 |
| 20260509123703 | 23 | 185 | 0.0 | 0.0 | 0.00 | 0.03 | 0.00 | 98 | 1013.4 |
| 20260509123603 | 23 | 185 | 0.0 | 0.0 | 0.00 | 0.03 | 0.00 | 98 | 1013.4 |
| 20260509123503 | 22 | 185 | 0.0 | 0.0 | 0.00 | 0.03 | 0.00 | 98 | 1013.3 |
| 20260509123403 | 22 | 185 | 0.0 | 0.0 | 0.00 | 0.03 | 0.00 | 98 | 1013.2 |
| 20260509123302 | 22 | 185 | 0.0 | 0.0 | 0.00 | 0.03 | 0.00 | 98 | 1013.2 |
| 20260509123203 | 22 | 185 | 0.0 | 0.0 | 0.00 | 0.03 | 0.00 | 98 | 1013.2 |
| 20260509123103 | 22 | 185 | 0.0 | 0.0 | 0.00 | 0.03 | 0.00 | 98 | 1013.2 |
| 20260509123005 | 22 | 185 | 0.0 | 0.0 | 0.00 | 0.03 | 0.00 | 98 | 1013.2 |
| 20260509122902 | 22 | 185 | 0.0 | 0.0 | 0.00 | 0.03 | 0.00 | 98 | 1013.2 |
| 20260509122803 | 22 | 185 | 0.0 | 0.0 | 0.00 | 0.03 | 0.00 | 98 | 1013.3 |
| 20260509122704 | 22 | 185 | 0.0 | 0.0 | 0.00 | 0.03 | 0.00 | 98 | 1013.3 |
| 20260509122603 | 22 | 185 | 0.0 | 0.0 | 0.00 | 0.03 | 0.00 | 98 | 1013.2 |
| 20260509122502 | 22 | 185 | 0.0 | 0.0 | 0.00 | 0.03 | 0.00 | 98 | 1013.3 |
| 20260509122403 | 22 | 185 | 0.0 | 0.0 | 0.00 | 0.03 | 0.00 | 98 | 1013.2 |
| 20260509122305 | 22 | 185 | 0.0 | 0.0 | 0.00 | 0.03 | 0.00 | 98 | 1013.2 |
| 20260509122203 | 22 | 185 | 0.0 | 0.0 | 0.00 | 0.03 | 0.00 | 98 | 1013.1 |
| 20260509122103 | 22 | 185 | 0.0 | 0.0 | 0.00 | 0.03 | 0.00 | 98 | 1013.1 |
| 20260509122005 | 22 | 185 | 0.0 | 0.0 | 0.00 | 0.03 | 0.00 | 98 | 1013.1 |
| 20260509121902 | 22 | 185 | 0.0 | 0.0 | 0.00 | 0.03 | 0.00 | 98 | 1013.0 |
| 20260509121802 | 22 | 185 | 0.0 | 0.0 | 0.00 | 0.03 | 0.00 | 98 | 1013.1 |
| 20260509121703 | 22 | 185 | 0.0 | 0.0 | 0.00 | 0.03 | 0.00 | 98 | 1013.1 |
| 20260509121604 | 22 | 185 | 0.0 | 0.0 | 0.00 | 0.03 | 0.00 | 98 | 1013.0 |
| 20260509121504 | 22 | 185 | 0.0 | 0.0 | 0.00 | 0.03 | 0.00 | 98 | 1013.0 |
| 20260509121401 | 22 | 185 | 0.0 | 0.0 | 0.00 | 0.03 | 0.00 | 98 | 1013.0 |
| 20260509121302 | 22 | 185 | 0.0 | 0.0 | 0.00 | 0.03 | 0.00 | 98 | 1012.9 |
| 20260509121202 | 22 | 185 | 0.0 | 0.0 | 0.00 | 0.03 | 0.00 | 98 | 1012.9 |
| 20260509121103 | 22 | 185 | 0.0 | 0.0 | 0.00 | 0.03 | 0.00 | 98 | 1013.0 |
| 20260509121004 | 22 | 185 | 0.0 | 0.0 | 0.00 | 0.03 | 0.00 | 98 | 1013.0 |
| 20260509120902 | 22 | 185 | 0.0 | 0.0 | 0.00 | 0.03 | 0.00 | 98 | 1013.0 |
| 20260509120803 | 22 | 185 | 0.0 | 0.0 | 0.00 | 0.03 | 0.00 | 98 | 1012.9 |
| 20260509120701 | 22 | 104 | 0.0 | 0.0 | 0.00 | 0.03 | 0.00 | 98 | 1012.9 |
| 20260509120533 | 22 | 104 | 0.0 | 0.0 | 0.00 | 0.03 | 0.00 | 98 | 1013.0 |
| 20260509120431 | 22 | 104 | 0.0 | 0.0 | 0.00 | 0.03 | 0.00 | 98 | 1012.9 |
| 20260509120331 | 22 | 94 | 0.0 | 0.0 | 0.00 | 0.03 | 0.00 | 98 | 1012.9 |
| 20260509120232 | 22 | 94 | 0.0 | 0.0 | 0.00 | 0.03 | 0.00 | 98 | 1013.0 |
| 20260509120124 | 22 | 94 | 0.0 | 0.0 | 0.00 | 0.03 | 0.00 | 98 | 1012.9 |
| 20260509120025 | 22 | 94 | 0.0 | 0.0 | 0.00 | 0.03 | 0.00 | 98 | 1013.0 |
| 20260509115922 | 22 | 94 | 0.0 | 0.0 | 0.00 | 0.03 | 0.00 | 98 | 1013.0 |
| 20260509115821 | 22 | 94 | 0.0 | 0.0 | 0.00 | 0.03 | 0.00 | 98 | 1013.0 |
| 20260509115712 | 22 | 94 | 0.0 | 0.0 | 0.00 | 0.03 | 0.00 | 98 | 1013.0 |
| 20260509115611 | 22 | 94 | 0.0 | 0.0 | 0.00 | 0.03 | 0.00 | 98 | 1013.0 |
| 20260509115512 | 23 | 94 | 0.0 | 0.0 | 0.00 | 0.03 | 0.00 | 98 | 1013.0 |
| 20260509115410 | 22 | 94 | 0.0 | 0.0 | 0.00 | 0.03 | 0.00 | 98 | 1013.0 |
| 20260509115310 | 22 | 94 | 0.0 | 0.0 | 0.00 | 0.03 | 0.00 | 98 | 1012.9 |
| 20260509115211 | 23 | 94 | 0.0 | 0.0 | 0.00 | 0.03 | 0.00 | 98 | 1013.0 |
| 20260509115110 | 23 | 94 | 0.0 | 0.0 | 0.00 | 0.03 | 0.00 | 98 | 1013.0 |
| 20260509115011 | 22 | 94 | 0.0 | 0.0 | 0.00 | 0.03 | 0.00 | 98 | 1013.1 |
| 20260509114910 | 22 | 94 | 0.0 | 0.0 | 0.00 | 0.03 | 0.00 | 98 | 1013.1 |
| 20260509114811 | 23 | 94 | 0.0 | 0.0 | 0.00 | 0.03 | 0.00 | 98 | 1013.1 |
| 20260509114710 | 23 | 94 | 0.0 | 0.0 | 0.00 | 0.03 | 0.00 | 98 | 1013.1 |
| 20260509114611 | 23 | 94 | 0.0 | 0.0 | 0.00 | 0.03 | 0.00 | 98 | 1013.1 |
| 20260509114511 | 23 | 94 | 0.0 | 0.0 | 0.00 | 0.03 | 0.00 | 98 | 1013.1 |
| 20260509114411 | 23 | 94 | 0.0 | 0.0 | 0.00 | 0.03 | 0.00 | 98 | 1013.1 |
| 20260509114312 | 23 | 94 | 0.0 | 0.0 | 0.00 | 0.03 | 0.00 | 98 | 1013.2 |
| 20260509114211 | 23 | 94 | 0.0 | 0.0 | 0.00 | 0.03 | 0.00 | 98 | 1013.1 |
| 20260509114110 | 23 | 94 | 0.0 | 0.0 | 0.00 | 0.03 | 0.00 | 98 | 1013.1 |
| 20260509114010 | 23 | 94 | 0.0 | 0.0 | 0.00 | 0.03 | 0.00 | 98 | 1013.1 |
| 20260509113910 | 23 | 94 | 0.0 | 0.0 | 0.00 | 0.03 | 0.00 | 98 | 1013.1 |
| 20260509113811 | 23 | 94 | 0.0 | 0.0 | 0.00 | 0.03 | 0.00 | 98 | 1013.1 |
| 20260509113711 | 23 | 94 | 0.0 | 0.0 | 0.00 | 0.03 | 0.00 | 98 | 1013.1 |
| 20260509113610 | 23 | 94 | 0.0 | 0.0 | 0.00 | 0.03 | 0.00 | 98 | 1013.1 |
| 20260509113511 | 23 | 94 | 0.0 | 0.0 | 0.00 | 0.03 | 0.00 | 98 | 1013.0 |
| 20260509113411 | 23 | 94 | 0.0 | 0.0 | 0.00 | 0.03 | 0.00 | 98 | 1013.0 |
| 20260509113310 | 23 | 94 | 0.0 | 0.0 | 0.00 | 0.03 | 0.00 | 98 | 1013.0 |
| 20260509113210 | 23 | 94 | 0.0 | 0.0 | 0.00 | 0.03 | 0.00 | 98 | 1013.0 |
| 20260509113111 | 23 | 94 | 0.0 | 0.0 | 0.00 | 0.03 | 0.00 | 98 | 1013.1 |
| 20260509113011 | 23 | 94 | 0.0 | 0.0 | 0.00 | 0.03 | 0.00 | 98 | 1013.1 |
| 20260509112910 | 23 | 94 | 0.0 | 0.0 | 0.00 | 0.03 | 0.00 | 98 | 1013.1 |
| 20260509112811 | 23 | 94 | 0.0 | 0.0 | 0.00 | 0.03 | 0.00 | 98 | 1013.1 |
| 20260509112712 | 23 | 94 | 0.0 | 0.0 | 0.00 | 0.03 | 0.00 | 98 | 1013.3 |
| 20260509112610 | 23 | 94 | 0.0 | 0.0 | 0.00 | 0.03 | 0.00 | 98 | 1013.3 |
| 20260509112510 | 23 | 94 | 0.0 | 0.0 | 0.00 | 0.03 | 0.00 | 98 | 1013.3 |
| 20260509112411 | 23 | 94 | 0.0 | 0.0 | 0.00 | 0.03 | 0.00 | 98 | 1013.4 |
| 20260509112311 | 23 | 94 | 0.0 | 0.0 | 0.00 | 0.03 | 0.00 | 98 | 1013.6 |
| 20260509112212 | 23 | 94 | 0.0 | 0.0 | 0.00 | 0.03 | 0.00 | 98 | 1013.5 |
| 20260509112110 | 23 | 94 | 0.0 | 0.0 | 0.00 | 0.03 | 0.00 | 98 | 1013.5 |
| 20260509112011 | 23 | 94 | 0.0 | 0.0 | 0.00 | 0.03 | 0.00 | 98 | 1013.6 |
| 20260509111909 | 23 | 94 | 0.0 | 0.0 | 0.00 | 0.03 | 0.00 | 98 | 1013.6 |
| 20260509111811 | 23 | 94 | 0.0 | 0.0 | 0.00 | 0.03 | 0.00 | 98 | 1013.6 |
| 20260509111706 | 23 | 94 | 0.0 | 0.0 | 0.00 | 0.03 | 0.00 | 98 | 1013.6 |
| 20260509111604 | 22 | 94 | 0.0 | 0.0 | 0.00 | 0.03 | 0.00 | 98 | 1013.6 |
| 20260509111503 | 22 | 94 | 0.0 | 0.0 | 0.00 | 0.03 | 0.00 | 98 | 1013.6 |
| 20260509111356 | 22 | 94 | 0.0 | 0.0 | 0.00 | 0.03 | 0.00 | 98 | 1013.7 |
| 20260509111254 | 22 | 94 | 0.0 | 0.0 | 0.00 | 0.03 | 0.00 | 98 | 1013.6 |
| 20260509111153 | 22 | 94 | 0.0 | 0.0 | 0.00 | 0.03 | 0.00 | 98 | 1013.7 |
| 20260509111049 | 22 | 94 | 0.0 | 0.0 | 0.00 | 0.03 | 0.00 | 98 | 1013.6 |
| 20260509110946 | 22 | 94 | 0.0 | 0.0 | 0.00 | 0.03 | 0.00 | 98 | 1013.6 |
| 20260509110846 | 22 | 94 | 0.0 | 0.0 | 0.00 | 0.03 | 0.00 | 98 | 1013.6 |
| 20260509110742 | 22 | 94 | 0.0 | 0.0 | 0.00 | 0.03 | 0.00 | 98 | 1013.5 |
| 20260509110640 | 22 | 94 | 0.0 | 0.0 | 0.00 | 0.03 | 0.00 | 98 | 1013.4 |
| 20260509110539 | 22 | 94 | 0.0 | 0.0 | 0.00 | 0.03 | 0.00 | 98 | 1013.5 |
| 20260509110437 | 22 | 94 | 0.0 | 0.0 | 0.00 | 0.03 | 0.00 | 98 | 1013.4 |
| 20260509110333 | 22 | 94 | 0.0 | 0.0 | 0.00 | 0.03 | 0.00 | 98 | 1013.4 |
| 20260509110231 | 22 | 94 | 0.0 | 0.0 | 0.00 | 0.03 | 0.00 | 98 | 1013.3 |
| 20260509110132 | 22 | 94 | 0.0 | 0.0 | 0.00 | 0.03 | 0.00 | 98 | 1013.2 |
| 20260509110012 | 22 | 94 | 0.0 | 0.0 | 0.00 | 0.03 | 0.00 | 98 | 1013.2 |
| 20260509105911 | 22 | 94 | 0.0 | 0.0 | 0.00 | 0.03 | 0.00 | 98 | 1013.1 |
| 20260509105809 | 22 | 94 | 0.0 | 0.0 | 0.00 | 0.03 | 0.00 | 98 | 1013.2 |
| 20260509105709 | 22 | 94 | 0.0 | 0.0 | 0.00 | 0.03 | 0.00 | 98 | 1013.1 |
| 20260509105612 | 22 | 94 | 0.0 | 0.0 | 0.00 | 0.03 | 0.00 | 98 | 1013.1 |
| 20260509105509 | 22 | 94 | 0.0 | 0.0 | 0.00 | 0.03 | 0.00 | 98 | 1013.1 |
| 20260509105410 | 22 | 94 | 0.0 | 0.0 | 0.00 | 0.03 | 0.00 | 98 | 1013.0 |
| 20260509105310 | 22 | 94 | 0.0 | 0.0 | 0.00 | 0.03 | 0.00 | 98 | 1013.0 |
| 20260509105210 | 22 | 94 | 0.0 | 0.0 | 0.00 | 0.03 | 0.00 | 98 | 1013.0 |
| 20260509105109 | 22 | 94 | 0.0 | 0.0 | 0.00 | 0.03 | 0.00 | 98 | 1012.9 |
| 20260509105009 | 22 | 94 | 0.0 | 0.0 | 0.00 | 0.03 | 0.00 | 98 | 1012.9 |
| 20260509104910 | 22 | 94 | 0.0 | 0.0 | 0.00 | 0.03 | 0.00 | 98 | 1012.9 |
| 20260509104809 | 22 | 94 | 0.0 | 0.0 | 0.00 | 0.03 | 0.00 | 98 | 1012.8 |
| 20260509104710 | 22 | 94 | 0.0 | 0.0 | 0.00 | 0.03 | 0.00 | 98 | 1012.9 |
| 20260509104611 | 22 | 94 | 0.0 | 0.0 | 0.00 | 0.03 | 0.00 | 98 | 1012.8 |
| 20260509104510 | 22 | 94 | 0.0 | 0.0 | 0.00 | 0.03 | 0.00 | 98 | 1012.8 |
| 20260509104410 | 22 | 94 | 0.0 | 0.0 | 0.00 | 0.03 | 0.00 | 98 | 1012.8 |
| 20260509104309 | 22 | 94 | 0.0 | 0.0 | 0.00 | 0.03 | 0.00 | 98 | 1012.8 |
| 20260509104208 | 22 | 94 | 0.0 | 0.0 | 0.00 | 0.03 | 0.00 | 98 | 1012.8 |
| 20260509104110 | 22 | 94 | 0.0 | 0.0 | 0.00 | 0.03 | 0.00 | 98 | 1012.8 |
| 20260509104009 | 22 | 94 | 0.0 | 0.0 | 0.00 | 0.03 | 0.00 | 98 | 1012.8 |
| 20260509103910 | 22 | 94 | 0.0 | 0.0 | 0.00 | 0.03 | 0.00 | 98 | 1012.8 |
| 20260509103810 | 22 | 94 | 0.0 | 0.0 | 0.00 | 0.03 | 0.00 | 98 | 1012.8 |
| 20260509103710 | 22 | 94 | 0.0 | 0.0 | 0.00 | 0.03 | 0.00 | 98 | 1012.8 |
| 20260509103610 | 22 | 94 | 0.0 | 0.0 | 0.00 | 0.03 | 0.00 | 98 | 1012.9 |
| 20260509103510 | 22 | 94 | 0.0 | 0.0 | 0.00 | 0.03 | 0.00 | 98 | 1012.9 |
| 20260509103409 | 22 | 94 | 0.0 | 0.0 | 0.00 | 0.03 | 0.00 | 98 | 1012.9 |
| 20260509103308 | 22 | 94 | 0.0 | 0.0 | 0.00 | 0.03 | 0.00 | 98 | 1012.8 |
| 20260509103210 | 22 | 94 | 0.0 | 0.0 | 0.00 | 0.03 | 0.00 | 98 | 1012.8 |
| 20260509103108 | 22 | 94 | 0.0 | 0.0 | 0.00 | 0.03 | 0.00 | 98 | 1012.8 |
| 20260509103009 | 22 | 94 | 0.0 | 0.0 | 0.00 | 0.03 | 0.00 | 98 | 1012.7 |
| 20260509102909 | 22 | 94 | 0.0 | 0.0 | 0.00 | 0.03 | 0.00 | 98 | 1012.7 |
| 20260509102809 | 22 | 94 | 0.0 | 0.0 | 0.00 | 0.03 | 0.00 | 98 | 1012.7 |
| 20260509102709 | 22 | 94 | 0.0 | 0.0 | 0.00 | 0.03 | 0.00 | 98 | 1012.8 |
| 20260509102611 | 22 | 94 | 0.0 | 0.0 | 0.00 | 0.03 | 0.00 | 98 | 1012.7 |
| 20260509102509 | 22 | 94 | 0.0 | 0.0 | 0.00 | 0.03 | 0.00 | 98 | 1012.6 |
| 20260509102409 | 22 | 94 | 0.0 | 0.0 | 0.00 | 0.03 | 0.00 | 98 | 1012.7 |
| 20260509102309 | 22 | 94 | 0.0 | 0.0 | 0.00 | 0.03 | 0.00 | 98 | 1012.6 |
| 20260509102210 | 22 | 94 | 0.0 | 0.0 | 0.00 | 0.03 | 0.00 | 98 | 1012.6 |
| 20260509102110 | 22 | 94 | 0.0 | 0.0 | 0.00 | 0.03 | 0.00 | 98 | 1012.6 |
| 20260509102009 | 22 | 94 | 0.0 | 0.0 | 0.00 | 0.03 | 0.00 | 98 | 1012.5 |
| 20260509101909 | 22 | 94 | 0.0 | 0.0 | 0.00 | 0.03 | 0.00 | 98 | 1012.6 |
| 20260509101811 | 22 | 94 | 0.0 | 0.0 | 0.00 | 0.03 | 0.00 | 98 | 1012.6 |
| 20260509101708 | 22 | 94 | 0.0 | 0.0 | 0.00 | 0.03 | 0.00 | 98 | 1012.5 |
| 20260509101611 | 22 | 94 | 0.0 | 0.0 | 0.00 | 0.03 | 0.00 | 98 | 1012.6 |
| 20260509101509 | 22 | 94 | 0.0 | 0.0 | 0.00 | 0.03 | 0.00 | 98 | 1012.6 |
| 20260509101411 | 22 | 94 | 0.0 | 0.0 | 0.00 | 0.03 | 0.00 | 98 | 1012.6 |
| 20260509101309 | 22 | 94 | 0.0 | 0.0 | 0.00 | 0.03 | 0.00 | 98 | 1012.6 |
| 20260509101208 | 22 | 94 | 0.0 | 0.0 | 0.00 | 0.03 | 0.00 | 98 | 1012.7 |
| 20260509101111 | 22 | 94 | 0.0 | 0.0 | 0.00 | 0.03 | 0.00 | 98 | 1012.7 |
| 20260509101008 | 22 | 94 | 0.0 | 0.0 | 0.00 | 0.03 | 0.00 | 98 | 1012.6 |
| 20260509100909 | 22 | 94 | 0.0 | 0.0 | 0.00 | 0.03 | 0.00 | 98 | 1012.7 |
| 20260509100809 | 22 | 94 | 0.0 | 0.0 | 0.00 | 0.03 | 0.00 | 98 | 1012.6 |
| 20260509100709 | 22 | 94 | 0.0 | 0.0 | 0.00 | 0.03 | 0.00 | 98 | 1012.6 |
| 20260509100610 | 22 | 94 | 0.0 | 0.0 | 0.00 | 0.03 | 0.00 | 98 | 1012.5 |
| 20260509100509 | 22 | 94 | 0.0 | 0.0 | 0.00 | 0.03 | 0.00 | 98 | 1012.5 |
| 20260509100409 | 22 | 94 | 0.0 | 0.0 | 0.00 | 0.03 | 0.00 | 98 | 1012.5 |
| 20260509100308 | 22 | 94 | 0.0 | 0.0 | 0.00 | 0.03 | 0.00 | 98 | 1012.5 |
| 20260509100208 | 22 | 94 | 0.0 | 0.0 | 0.00 | 0.03 | 0.00 | 98 | 1012.5 |
| 20260509100109 | 22 | 94 | 0.0 | 0.0 | 0.00 | 0.03 | 0.00 | 98 | 1012.5 |
| 20260509100009 | 22 | 94 | 0.0 | 0.0 | 0.00 | 0.03 | 0.00 | 98 | 1012.4 |
| 20260509095908 | 22 | 94 | 0.0 | 0.0 | 0.00 | 0.03 | 0.00 | 98 | 1012.4 |
| 20260509095808 | 22 | 94 | 0.0 | 0.0 | 0.00 | 0.03 | 0.00 | 98 | 1012.3 |
| 20260509095710 | 22 | 94 | 0.0 | 0.0 | 0.00 | 0.03 | 0.00 | 98 | 1012.3 |
| 20260509095609 | 22 | 94 | 0.0 | 0.0 | 0.00 | 0.03 | 0.00 | 98 | 1012.3 |
| 20260509095508 | 22 | 94 | 0.0 | 0.0 | 0.00 | 0.03 | 0.00 | 98 | 1012.3 |
| 20260509095409 | 22 | 94 | 0.0 | 0.0 | 0.00 | 0.03 | 0.00 | 98 | 1012.4 |
| 20260509095309 | 22 | 94 | 0.0 | 0.0 | 0.00 | 0.03 | 0.00 | 98 | 1012.3 |
| 20260509095208 | 22 | 94 | 0.0 | 0.0 | 0.00 | 0.03 | 0.00 | 98 | 1012.4 |
| 20260509095108 | 22 | 94 | 0.0 | 0.0 | 0.00 | 0.03 | 0.00 | 98 | 1012.3 |
| 20260509095007 | 22 | 94 | 0.0 | 0.0 | 0.00 | 0.03 | 0.00 | 98 | 1012.4 |
| 20260509094909 | 22 | 94 | 0.0 | 0.0 | 0.00 | 0.03 | 0.00 | 98 | 1012.4 |
| 20260509094808 | 22 | 94 | 0.0 | 0.0 | 0.00 | 0.03 | 0.00 | 98 | 1012.3 |
| 20260509094708 | 22 | 94 | 0.0 | 0.0 | 0.00 | 0.03 | 0.00 | 98 | 1012.3 |
| 20260509094609 | 22 | 94 | 0.0 | 0.0 | 0.00 | 0.03 | 0.00 | 98 | 1012.4 |
| 20260509094509 | 22 | 94 | 0.0 | 0.0 | 0.00 | 0.03 | 0.00 | 98 | 1012.4 |
| 20260509094409 | 22 | 94 | 0.0 | 0.0 | 0.00 | 0.03 | 0.00 | 98 | 1012.5 |
| 20260509094309 | 22 | 94 | 0.0 | 0.0 | 0.00 | 0.03 | 0.00 | 98 | 1012.4 |
| 20260509094209 | 22 | 94 | 0.0 | 0.0 | 0.00 | 0.03 | 0.00 | 98 | 1012.4 |
| 20260509094109 | 22 | 94 | 0.0 | 0.0 | 0.00 | 0.03 | 0.00 | 98 | 1012.4 |
| 20260509094010 | 22 | 94 | 0.0 | 0.0 | 0.00 | 0.03 | 0.00 | 98 | 1012.3 |
| 20260509093908 | 22 | 94 | 0.0 | 0.0 | 0.00 | 0.03 | 0.00 | 98 | 1012.4 |
| 20260509093809 | 22 | 94 | 0.0 | 0.0 | 0.00 | 0.03 | 0.00 | 98 | 1012.4 |
| 20260509093708 | 22 | 94 | 0.0 | 0.0 | 0.00 | 0.03 | 0.00 | 98 | 1012.4 |
| 20260509093610 | 22 | 94 | 0.0 | 0.0 | 0.00 | 0.03 | 0.00 | 98 | 1012.4 |
| 20260509093510 | 22 | 94 | 0.0 | 0.0 | 0.00 | 0.03 | 0.00 | 98 | 1012.4 |
| 20260509093409 | 22 | 94 | 0.0 | 0.0 | 0.00 | 0.03 | 0.00 | 98 | 1012.4 |
| 20260509093310 | 22 | 94 | 0.0 | 0.0 | 0.00 | 0.03 | 0.00 | 98 | 1012.6 |
| 20260509093210 | 22 | 94 | 0.0 | 0.0 | 0.00 | 0.03 | 0.00 | 98 | 1012.6 |
| 20260509093108 | 22 | 94 | 0.0 | 0.0 | 0.00 | 0.03 | 0.00 | 98 | 1012.7 |
| 20260509093009 | 22 | 94 | 0.0 | 0.0 | 0.00 | 0.03 | 0.00 | 98 | 1012.7 |
| 20260509092908 | 22 | 94 | 0.0 | 0.0 | 0.00 | 0.03 | 0.00 | 98 | 1012.6 |
| 20260509092808 | 22 | 94 | 0.0 | 0.0 | 0.00 | 0.03 | 0.00 | 98 | 1012.6 |
| 20260509092707 | 22 | 94 | 0.0 | 1.6 | 0.00 | 0.03 | 0.00 | 98 | 1012.6 |
| 20260509092609 | 22 | 94 | 0.0 | 3.2 | 0.00 | 0.03 | 0.00 | 98 | 1012.6 |
| 20260509092507 | 22 | 94 | 0.0 | 3.2 | 0.00 | 0.03 | 0.00 | 98 | 1012.7 |
| 20260509092407 | 22 | 94 | 0.0 | 3.2 | 0.00 | 0.03 | 0.00 | 98 | 1012.7 |
| 20260509092308 | 22 | 94 | 0.0 | 3.2 | 0.00 | 0.03 | 0.00 | 98 | 1012.8 |
| 20260509092208 | 22 | 94 | 0.0 | 3.2 | 0.00 | 0.03 | 0.00 | 98 | 1012.8 |
| 20260509092107 | 22 | 94 | 0.0 | 3.2 | 0.00 | 0.03 | 0.00 | 98 | 1012.8 |
| 20260509092007 | 22 | 94 | 0.0 | 3.2 | 0.00 | 0.03 | 0.00 | 98 | 1012.8 |
| 20260509091908 | 22 | 94 | 1.6 | 3.2 | 0.00 | 0.03 | 0.00 | 98 | 1012.7 |
| 20260509091808 | 22 | 94 | 1.6 | 3.2 | 0.00 | 0.03 | 0.00 | 98 | 1012.8 |
| 20260509091708 | 22 | 94 | 1.6 | 3.2 | 0.00 | 0.03 | 0.00 | 98 | 1012.9 |
| 20260509091607 | 22 | 94 | 1.6 | 3.2 | 0.00 | 0.03 | 0.00 | 98 | 1012.8 |
| 20260509091506 | 22 | 94 | 1.6 | 3.2 | 0.00 | 0.03 | 0.00 | 98 | 1012.9 |
| 20260509091409 | 22 | 94 | 1.6 | 3.2 | 0.00 | 0.03 | 0.00 | 98 | 1012.8 |
| 20260509091308 | 22 | 94 | 1.6 | 3.2 | 0.00 | 0.03 | 0.00 | 98 | 1012.8 |
| 20260509091208 | 22 | 94 | 1.6 | 3.2 | 0.00 | 0.03 | 0.00 | 98 | 1012.8 |
| 20260509091108 | 22 | 94 | 1.6 | 3.2 | 0.00 | 0.03 | 0.00 | 98 | 1012.8 |
| 20260509091009 | 22 | 94 | 1.6 | 1.6 | 0.00 | 0.03 | 0.00 | 98 | 1012.7 |
| 20260509090908 | 22 | 94 | 0.0 | 1.6 | 0.00 | 0.03 | 0.00 | 98 | 1012.7 |
| 20260509090808 | 22 | 94 | 0.0 | 1.6 | 0.00 | 0.03 | 0.00 | 97 | 1012.7 |
| 20260509090707 | 22 | 94 | 0.0 | 1.6 | 0.00 | 0.03 | 0.00 | 98 | 1012.7 |
| 20260509090608 | 22 | 94 | 0.0 | 1.6 | 0.00 | 0.03 | 0.00 | 98 | 1012.7 |
| 20260509090508 | 22 | 94 | 0.0 | 1.6 | 0.00 | 0.03 | 0.00 | 98 | 1012.7 |
| 20260509090407 | 22 | 94 | 1.6 | 1.6 | 0.00 | 0.03 | 0.00 | 97 | 1012.8 |
| 20260509090308 | 22 | 94 | 0.0 | 1.6 | 0.00 | 0.03 | 0.00 | 98 | 1012.7 |
| 20260509090208 | 22 | 94 | 0.0 | 1.6 | 0.00 | 0.03 | 0.00 | 98 | 1012.7 |
| 20260509090109 | 22 | 94 | 0.0 | 1.6 | 0.00 | 0.03 | 0.00 | 97 | 1012.6 |
| 20260509090007 | 22 | 94 | 0.0 | 0.0 | 0.00 | 0.03 | 0.00 | 98 | 1012.6 |
| 20260509085906 | 22 | 94 | 0.0 | 0.0 | 0.00 | 0.03 | 0.00 | 98 | 1012.7 |
| 20260509085808 | 22 | 94 | 0.0 | 0.0 | 0.00 | 0.03 | 0.00 | 98 | 1012.7 |
| 20260509085707 | 22 | 94 | 0.0 | 0.0 | 0.00 | 0.03 | 0.00 | 98 | 1012.7 |
| 20260509085606 | 22 | 94 | 0.0 | 0.0 | 0.00 | 0.03 | 0.00 | 98 | 1012.6 |
| 20260509085507 | 22 | 94 | 0.0 | 0.0 | 0.00 | 0.03 | 0.00 | 97 | 1012.6 |
| 20260509085407 | 22 | 94 | 0.0 | 0.0 | 0.00 | 0.03 | 0.00 | 97 | 1012.6 |
| 20260509085309 | 22 | 94 | 0.0 | 0.0 | 0.00 | 0.03 | 0.00 | 97 | 1012.5 |
| 20260509085206 | 22 | 94 | 0.0 | 0.0 | 0.00 | 0.03 | 0.00 | 97 | 1012.6 |
| 20260509085107 | 22 | 94 | 0.0 | 0.0 | 0.00 | 0.03 | 0.00 | 97 | 1012.6 |
| 20260509085006 | 22 | 94 | 0.0 | 0.0 | 0.00 | 0.03 | 0.00 | 97 | 1012.5 |
| 20260509084906 | 22 | 94 | 0.0 | 0.0 | 0.00 | 0.03 | 0.00 | 97 | 1012.5 |
| 20260509084807 | 22 | 94 | 0.0 | 0.0 | 0.00 | 0.03 | 0.00 | 97 | 1012.5 |
| 20260509084706 | 22 | 94 | 0.0 | 0.0 | 0.00 | 0.03 | 0.00 | 97 | 1012.5 |
| 20260509084606 | 22 | 94 | 0.0 | 0.0 | 0.00 | 0.03 | 0.00 | 97 | 1012.6 |
| 20260509084506 | 22 | 94 | 0.0 | 0.0 | 0.00 | 0.03 | 0.00 | 97 | 1012.5 |
| 20260509084406 | 22 | 94 | 0.0 | 0.0 | 0.00 | 0.03 | 0.00 | 97 | 1012.5 |
| 20260509084306 | 22 | 94 | 0.0 | 0.0 | 0.00 | 0.03 | 0.00 | 97 | 1012.7 |
| 20260509084206 | 22 | 94 | 0.0 | 0.0 | 0.00 | 0.03 | 0.00 | 97 | 1012.6 |
| 20260509084108 | 22 | 94 | 0.0 | 0.0 | 0.00 | 0.03 | 0.00 | 97 | 1012.6 |
| 20260509084006 | 22 | 94 | 0.0 | 0.0 | 0.00 | 0.03 | 0.00 | 97 | 1012.6 |
| 20260509083906 | 22 | 94 | 0.0 | 0.0 | 0.00 | 0.03 | 0.00 | 97 | 1012.6 |
| 20260509083806 | 22 | 94 | 0.0 | 0.0 | 0.00 | 0.03 | 0.00 | 97 | 1012.6 |
| 20260509083708 | 22 | 94 | 0.0 | 0.0 | 0.00 | 0.03 | 0.00 | 97 | 1012.6 |
| 20260509083607 | 22 | 94 | 0.0 | 0.0 | 0.00 | 0.03 | 0.00 | 97 | 1012.6 |
| 20260509083506 | 22 | 94 | 0.0 | 0.0 | 0.00 | 0.03 | 0.00 | 97 | 1012.6 |
| 20260509083407 | 22 | 94 | 0.0 | 0.0 | 0.00 | 0.03 | 0.00 | 97 | 1012.7 |
| 20260509083308 | 22 | 94 | 0.0 | 0.0 | 0.00 | 0.03 | 0.00 | 97 | 1012.6 |
| 20260509083206 | 22 | 94 | 0.0 | 0.0 | 0.00 | 0.03 | 0.00 | 97 | 1012.6 |
| 20260509083108 | 22 | 94 | 0.0 | 0.0 | 0.00 | 0.03 | 0.00 | 97 | 1012.6 |
| 20260509083006 | 22 | 94 | 0.0 | 0.0 | 0.00 | 0.03 | 0.00 | 97 | 1012.5 |
| 20260509082906 | 22 | 94 | 0.0 | 0.0 | 0.00 | 0.03 | 0.00 | 97 | 1012.5 |
| 20260509082806 | 22 | 94 | 0.0 | 0.0 | 0.00 | 0.03 | 0.00 | 97 | 1012.4 |
| 20260509082707 | 22 | 94 | 0.0 | 0.0 | 0.00 | 0.03 | 0.00 | 97 | 1012.4 |
| 20260509082606 | 22 | 94 | 0.0 | 0.0 | 0.00 | 0.03 | 0.00 | 97 | 1012.5 |
| 20260509082506 | 22 | 94 | 0.0 | 0.0 | 0.00 | 0.03 | 0.00 | 97 | 1012.4 |
| 20260509082408 | 22 | 94 | 0.0 | 0.0 | 0.00 | 0.03 | 0.00 | 97 | 1012.4 |
| 20260509082307 | 22 | 94 | 0.0 | 0.0 | 0.00 | 0.03 | 0.00 | 97 | 1012.5 |
| 20260509082208 | 22 | 94 | 0.0 | 0.0 | 0.00 | 0.03 | 0.00 | 97 | 1012.5 |
| 20260509082105 | 22 | 94 | 0.0 | 0.0 | 0.00 | 0.03 | 0.00 | 97 | 1012.5 |
| 20260509082008 | 22 | 94 | 0.0 | 0.0 | 0.00 | 0.03 | 0.00 | 97 | 1012.5 |
| 20260509081906 | 22 | 94 | 0.0 | 0.0 | 0.00 | 0.03 | 0.00 | 97 | 1012.5 |
| 20260509081805 | 22 | 94 | 0.0 | 0.0 | 0.00 | 0.03 | 0.00 | 97 | 1012.5 |
| 20260509081706 | 22 | 94 | 0.0 | 0.0 | 0.00 | 0.03 | 0.00 | 97 | 1012.6 |
| 20260509081607 | 22 | 94 | 0.0 | 0.0 | 0.00 | 0.03 | 0.00 | 97 | 1012.6 |
| 20260509081507 | 22 | 94 | 0.0 | 0.0 | 0.00 | 0.03 | 0.00 | 97 | 1012.6 |
| 20260509081406 | 22 | 94 | 0.0 | 0.0 | 0.00 | 0.03 | 0.00 | 97 | 1012.6 |
| 20260509081307 | 22 | 94 | 0.0 | 0.0 | 0.00 | 0.03 | 0.00 | 97 | 1012.6 |
| 20260509081208 | 22 | 94 | 0.0 | 0.0 | 0.00 | 0.03 | 0.00 | 97 | 1012.6 |
| 20260509081105 | 22 | 94 | 0.0 | 0.0 | 0.00 | 0.03 | 0.00 | 97 | 1012.6 |
| 20260509081005 | 22 | 94 | 0.0 | 0.0 | 0.00 | 0.03 | 0.00 | 97 | 1012.6 |
| 20260509080906 | 22 | 94 | 0.0 | 0.0 | 0.00 | 0.03 | 0.00 | 97 | 1012.6 |
| 20260509080805 | 22 | 94 | 0.0 | 0.0 | 0.00 | 0.03 | 0.00 | 97 | 1012.6 |
| 20260509080706 | 22 | 94 | 0.0 | 0.0 | 0.00 | 0.03 | 0.00 | 97 | 1012.5 |
| 20260509080606 | 22 | 94 | 0.0 | 0.0 | 0.00 | 0.03 | 0.00 | 97 | 1012.6 |
| 20260509080505 | 22 | 94 | 0.0 | 0.0 | 0.00 | 0.03 | 0.00 | 97 | 1012.6 |
| 20260509080405 | 22 | 94 | 0.0 | 0.0 | 0.00 | 0.03 | 0.00 | 97 | 1012.6 |
| 20260509080305 | 22 | 94 | 0.0 | 0.0 | 0.00 | 0.03 | 0.00 | 97 | 1012.6 |
| 20260509080205 | 22 | 94 | 0.0 | 0.0 | 0.00 | 0.03 | 0.00 | 97 | 1012.6 |
| 20260509080105 | 22 | 94 | 0.0 | 0.0 | 0.00 | 0.03 | 0.00 | 97 | 1012.6 |
| 20260509080005 | 22 | 94 | 0.0 | 0.0 | 0.00 | 0.03 | 0.00 | 97 | 1012.5 |
| 20260509075906 | 22 | 94 | 0.0 | 0.0 | 0.00 | 0.03 | 0.00 | 97 | 1012.7 |
| 20260509075805 | 22 | 94 | 0.0 | 0.0 | 0.00 | 0.03 | 0.00 | 97 | 1012.7 |
| 20260509075705 | 22 | 94 | 0.0 | 0.0 | 0.00 | 0.03 | 0.00 | 97 | 1012.6 |
| 20260509075607 | 22 | 94 | 0.0 | 0.0 | 0.00 | 0.03 | 0.00 | 97 | 1012.7 |
| 20260509075505 | 22 | 94 | 0.0 | 0.0 | 0.00 | 0.03 | 0.00 | 97 | 1012.7 |
| 20260509075405 | 22 | 94 | 0.0 | 0.0 | 0.00 | 0.03 | 0.00 | 97 | 1012.6 |
| 20260509075306 | 22 | 94 | 0.0 | 0.0 | 0.00 | 0.03 | 0.00 | 97 | 1012.5 |
| 20260509075206 | 22 | 94 | 0.0 | 0.0 | 0.00 | 0.03 | 0.00 | 97 | 1012.5 |
| 20260509075105 | 22 | 94 | 0.0 | 0.0 | 0.00 | 0.03 | 0.00 | 97 | 1012.7 |
| 20260509075005 | 22 | 94 | 0.0 | 0.0 | 0.00 | 0.03 | 0.00 | 97 | 1012.6 |
| 20260509074907 | 22 | 94 | 0.0 | 0.0 | 0.00 | 0.03 | 0.00 | 97 | 1012.7 |
| 20260509074805 | 22 | 94 | 0.0 | 0.0 | 0.00 | 0.03 | 0.00 | 97 | 1012.6 |
| 20260509074705 | 22 | 94 | 0.0 | 0.0 | 0.00 | 0.03 | 0.00 | 97 | 1012.7 |
| 20260509074605 | 22 | 94 | 0.0 | 0.0 | 0.00 | 0.03 | 0.00 | 97 | 1012.7 |
| 20260509074505 | 22 | 94 | 0.0 | 0.0 | 0.00 | 0.03 | 0.00 | 97 | 1012.7 |
| 20260509074405 | 22 | 94 | 0.0 | 0.0 | 0.00 | 0.03 | 0.00 | 97 | 1012.7 |
| 20260509074305 | 22 | 94 | 0.0 | 0.0 | 0.00 | 0.03 | 0.00 | 97 | 1012.7 |
| 20260509074207 | 22 | 94 | 0.0 | 0.0 | 0.00 | 0.03 | 0.00 | 97 | 1012.7 |
| 20260509074105 | 22 | 94 | 0.0 | 0.0 | 0.00 | 0.03 | 0.00 | 97 | 1012.8 |
| 20260509074005 | 22 | 94 | 0.0 | 0.0 | 0.00 | 0.03 | 0.00 | 97 | 1012.7 |
| 20260509073907 | 22 | 94 | 0.0 | 0.0 | 0.00 | 0.03 | 0.00 | 97 | 1012.8 |
| 20260509073806 | 22 | 94 | 0.0 | 0.0 | 0.00 | 0.03 | 0.00 | 97 | 1012.8 |
| 20260509073707 | 22 | 94 | 0.0 | 0.0 | 0.00 | 0.03 | 0.00 | 97 | 1012.7 |
| 20260509073606 | 22 | 94 | 0.0 | 0.0 | 0.00 | 0.03 | 0.00 | 97 | 1012.8 |
| 20260509073504 | 22 | 94 | 0.0 | 0.0 | 0.00 | 0.03 | 0.00 | 97 | 1012.9 |
| 20260509073403 | 22 | 94 | 0.0 | 0.0 | 0.00 | 0.03 | 0.00 | 97 | 1012.8 |
| 20260509073303 | 22 | 94 | 0.0 | 0.0 | 0.00 | 0.03 | 0.00 | 97 | 1012.9 |
| 20260509073203 | 22 | 94 | 0.0 | 0.0 | 0.00 | 0.03 | 0.00 | 97 | 1012.9 |
| 20260509073102 | 22 | 94 | 0.0 | 0.0 | 0.00 | 0.03 | 0.00 | 97 | 1013.0 |
| 20260509073003 | 22 | 94 | 0.0 | 0.0 | 0.00 | 0.03 | 0.00 | 97 | 1012.9 |
| 20260509072902 | 22 | 94 | 0.0 | 0.0 | 0.00 | 0.03 | 0.00 | 97 | 1012.9 |
| 20260509072802 | 22 | 94 | 0.0 | 0.0 | 0.00 | 0.03 | 0.00 | 97 | 1013.0 |
| 20260509072702 | 22 | 94 | 0.0 | 0.0 | 0.00 | 0.03 | 0.00 | 97 | 1012.9 |
| 20260509072603 | 22 | 94 | 0.0 | 0.0 | 0.00 | 0.03 | 0.00 | 97 | 1013.0 |
| 20260509072503 | 22 | 94 | 0.0 | 0.0 | 0.00 | 0.03 | 0.00 | 97 | 1013.0 |
| 20260509072402 | 22 | 94 | 0.0 | 0.0 | 0.00 | 0.03 | 0.00 | 97 | 1013.1 |
| 20260509072306 | 22 | 94 | 0.0 | 0.0 | 0.00 | 0.03 | 0.00 | 97 | 1013.1 |
| 20260509072204 | 22 | 94 | 0.0 | 0.0 | 0.00 | 0.03 | 0.00 | 97 | 1013.2 |
| 20260509072104 | 22 | 94 | 0.0 | 0.0 | 0.00 | 0.03 | 0.00 | 97 | 1013.2 |
| 20260509072003 | 22 | 94 | 0.0 | 0.0 | 0.00 | 0.03 | 0.00 | 97 | 1013.2 |
| 20260509071901 | 22 | 94 | 0.0 | 0.0 | 0.00 | 0.03 | 0.00 | 97 | 1013.3 |
| 20260509071803 | 22 | 94 | 0.0 | 0.0 | 0.00 | 0.03 | 0.00 | 97 | 1013.3 |
| 20260509071702 | 22 | 94 | 0.0 | 0.0 | 0.00 | 0.03 | 0.00 | 97 | 1013.3 |
| 20260509071603 | 22 | 94 | 0.0 | 0.0 | 0.00 | 0.03 | 0.00 | 97 | 1013.2 |
| 20260509071505 | 22 | 94 | 0.0 | 0.0 | 0.00 | 0.03 | 0.00 | 97 | 1013.2 |
| 20260509071403 | 22 | 94 | 0.0 | 0.0 | 0.00 | 0.03 | 0.00 | 97 | 1013.1 |
| 20260509071304 | 22 | 94 | 0.0 | 0.0 | 0.00 | 0.03 | 0.00 | 97 | 1013.1 |
| 20260509071203 | 22 | 94 | 0.0 | 0.0 | 0.00 | 0.03 | 0.00 | 97 | 1013.1 |
| 20260509071103 | 22 | 94 | 0.0 | 0.0 | 0.00 | 0.03 | 0.00 | 97 | 1013.0 |
| 20260509071003 | 22 | 94 | 0.0 | 0.0 | 0.00 | 0.03 | 0.00 | 97 | 1013.0 |
| 20260509070903 | 22 | 94 | 0.0 | 0.0 | 0.00 | 0.03 | 0.00 | 97 | 1012.9 |
| 20260509070805 | 22 | 94 | 0.0 | 0.0 | 0.00 | 0.03 | 0.00 | 97 | 1012.9 |
| 20260509070703 | 22 | 94 | 0.0 | 0.0 | 0.00 | 0.03 | 0.00 | 97 | 1012.9 |
| 20260509070603 | 22 | 94 | 0.0 | 0.0 | 0.00 | 0.03 | 0.00 | 97 | 1012.9 |
| 20260509070458 | 22 | 94 | 0.0 | 0.0 | 0.00 | 0.03 | 0.00 | 97 | 1013.0 |
| 20260509070356 | 22 | 94 | 0.0 | 0.0 | 0.00 | 0.03 | 0.00 | 97 | 1013.0 |
| 20260509070332 | 22 | 94 | 0.0 | 0.0 | 0.00 | 0.03 | 0.00 | 97 | 1012.9 |
| 20260509070323 | 22 | 94 | 0.0 | 0.0 | 0.00 | 0.03 | 0.00 | 97 | 1012.9 |
| 20260509070312 | 22 | 94 | 0.0 | 0.0 | 0.00 | 0.03 | 0.00 | 97 | 1012.9 |
| 20260509070252 | 22 | 94 | 0.0 | 0.0 | 0.00 | 0.03 | 0.00 | 97 | 1012.9 |
| 20260509070233 | 22 | 94 | 0.0 | 0.0 | 0.00 | 0.03 | 0.00 | 97 | 1012.9 |
| 20260509065952 | 22 | 94 | 0.0 | 0.0 | 0.00 | 0.03 | 0.00 | 97 | 1012.9 |
| 20260509065632 | 22 | 94 | 0.0 | 0.0 | 0.00 | 0.03 | 0.00 | 97 | 1012.8 |
| 20260509065524 | 22 | 94 | 0.0 | 0.0 | 0.00 | 0.03 | 0.00 | 97 | 1012.8 |
| 20260509065422 | 22 | 94 | 0.0 | 0.0 | 0.00 | 0.03 | 0.00 | 97 | 1012.8 |
| 20260509065320 | 22 | 94 | 0.0 | 0.0 | 0.00 | 0.03 | 0.00 | 97 | 1012.8 |
| 20260509065218 | 22 | 94 | 0.0 | 0.0 | 0.00 | 0.03 | 0.00 | 97 | 1012.8 |
| 20260509065115 | 22 | 94 | 0.0 | 0.0 | 0.00 | 0.03 | 0.00 | 97 | 1012.8 |
| 20260509065015 | 22 | 94 | 0.0 | 0.0 | 0.00 | 0.03 | 0.00 | 97 | 1012.9 |
| 20260509064903 | 22 | 94 | 0.0 | 0.0 | 0.00 | 0.03 | 0.00 | 97 | 1012.9 |
| 20260509064805 | 22 | 94 | 0.0 | 0.0 | 0.00 | 0.03 | 0.00 | 97 | 1012.9 |
| 20260509064703 | 22 | 94 | 0.0 | 0.0 | 0.00 | 0.03 | 0.00 | 97 | 1012.9 |
| 20260509064604 | 22 | 94 | 0.0 | 0.0 | 0.00 | 0.03 | 0.00 | 97 | 1013.0 |
| 20260509064505 | 22 | 94 | 0.0 | 0.0 | 0.00 | 0.03 | 0.00 | 97 | 1012.9 |
| 20260509064404 | 22 | 94 | 0.0 | 0.0 | 0.00 | 0.03 | 0.00 | 97 | 1013.1 |
| 20260509064304 | 22 | 94 | 0.0 | 0.0 | 0.00 | 0.03 | 0.00 | 97 | 1013.1 |
| 20260509064203 | 22 | 94 | 0.0 | 0.0 | 0.00 | 0.03 | 0.00 | 97 | 1013.1 |
| 20260509064105 | 22 | 94 | 0.0 | 0.0 | 0.00 | 0.03 | 0.00 | 97 | 1013.0 |
| 20260509064003 | 22 | 94 | 0.0 | 0.0 | 0.00 | 0.03 | 0.00 | 97 | 1013.0 |
| 20260509063903 | 22 | 94 | 0.0 | 0.0 | 0.00 | 0.03 | 0.00 | 97 | 1013.0 |
| 20260509063803 | 22 | 94 | 0.0 | 0.0 | 0.00 | 0.03 | 0.00 | 97 | 1012.9 |
| 20260509063705 | 22 | 94 | 0.0 | 0.0 | 0.00 | 0.03 | 0.00 | 97 | 1012.9 |
| 20260509063604 | 22 | 94 | 0.0 | 0.0 | 0.00 | 0.03 | 0.00 | 97 | 1012.9 |
| 20260509063505 | 22 | 94 | 0.0 | 0.0 | 0.00 | 0.03 | 0.00 | 97 | 1012.9 |
| 20260509063404 | 22 | 94 | 0.0 | 0.0 | 0.00 | 0.03 | 0.00 | 97 | 1013.0 |
| 20260509063304 | 22 | 94 | 0.0 | 0.0 | 0.00 | 0.03 | 0.00 | 97 | 1013.0 |
| 20260509063203 | 22 | 94 | 0.0 | 0.0 | 0.00 | 0.03 | 0.00 | 97 | 1013.1 |
| 20260509063103 | 22 | 94 | 0.0 | 0.0 | 0.00 | 0.03 | 0.00 | 97 | 1013.0 |
| 20260509063003 | 22 | 94 | 0.0 | 0.0 | 0.00 | 0.03 | 0.00 | 97 | 1013.0 |
| 20260509062905 | 22 | 94 | 0.0 | 0.0 | 0.00 | 0.03 | 0.00 | 97 | 1013.2 |
| 20260509062803 | 22 | 94 | 0.0 | 0.0 | 0.00 | 0.03 | 0.00 | 97 | 1013.2 |
| 20260509062703 | 22 | 94 | 0.0 | 0.0 | 0.00 | 0.03 | 0.00 | 97 | 1013.2 |
| 20260509062603 | 22 | 94 | 0.0 | 0.0 | 0.00 | 0.03 | 0.00 | 97 | 1013.2 |
| 20260509062506 | 22 | 94 | 0.0 | 0.0 | 0.00 | 0.03 | 0.00 | 97 | 1013.2 |
| 20260509062403 | 22 | 94 | 0.0 | 0.0 | 0.00 | 0.03 | 0.00 | 97 | 1013.3 |
| 20260509062306 | 22 | 94 | 0.0 | 0.0 | 0.00 | 0.03 | 0.00 | 97 | 1013.2 |
| 20260509062204 | 22 | 94 | 0.0 | 0.0 | 0.00 | 0.03 | 0.00 | 97 | 1013.2 |
| 20260509062104 | 22 | 94 | 0.0 | 0.0 | 0.00 | 0.03 | 0.00 | 97 | 1013.2 |
| 20260509062004 | 22 | 94 | 0.0 | 0.0 | 0.00 | 0.03 | 0.00 | 97 | 1013.1 |
| 20260509061903 | 22 | 94 | 0.0 | 0.0 | 0.00 | 0.03 | 0.00 | 97 | 1013.1 |
| 20260509061803 | 22 | 94 | 0.0 | 0.0 | 0.00 | 0.03 | 0.00 | 97 | 1013.1 |
| 20260509061703 | 22 | 94 | 0.0 | 0.0 | 0.00 | 0.03 | 0.00 | 97 | 1013.1 |
| 20260509061603 | 22 | 94 | 0.0 | 0.0 | 0.00 | 0.03 | 0.00 | 97 | 1013.1 |
| 20260509061503 | 22 | 94 | 0.0 | 0.0 | 0.00 | 0.03 | 0.00 | 97 | 1013.1 |
| 20260509061402 | 22 | 94 | 0.0 | 0.0 | 0.00 | 0.03 | 0.00 | 97 | 1013.1 |
| 20260509061300 | 22 | 94 | 0.0 | 0.0 | 0.00 | 0.03 | 0.00 | 97 | 1013.1 |
| 20260509061159 | 22 | 94 | 0.0 | 0.0 | 0.00 | 0.03 | 0.00 | 97 | 1013.2 |
| 20260509061058 | 22 | 94 | 0.0 | 0.0 | 0.00 | 0.03 | 0.00 | 97 | 1013.1 |
| 20260509060957 | 22 | 94 | 0.0 | 0.0 | 0.00 | 0.03 | 0.00 | 97 | 1013.3 |
| 20260509060855 | 22 | 94 | 0.0 | 0.0 | 0.00 | 0.03 | 0.00 | 97 | 1013.2 |
| 20260509060746 | 22 | 94 | 0.0 | 0.0 | 0.00 | 0.03 | 0.00 | 97 | 1013.3 |
| 20260509060644 | 22 | 94 | 0.0 | 0.0 | 0.00 | 0.03 | 0.00 | 97 | 1013.3 |
| 20260509060541 | 22 | 94 | 0.0 | 0.0 | 0.00 | 0.03 | 0.00 | 97 | 1013.4 |
| 20260509060440 | 22 | 94 | 0.0 | 0.0 | 0.00 | 0.03 | 0.00 | 97 | 1013.4 |
| 20260509060339 | 22 | 94 | 0.0 | 0.0 | 0.00 | 0.03 | 0.00 | 97 | 1013.4 |
| 20260509060237 | 22 | 94 | 0.0 | 0.0 | 0.00 | 0.03 | 0.00 | 97 | 1013.4 |
| 20260509060136 | 22 | 94 | 0.0 | 0.0 | 0.00 | 0.03 | 0.00 | 97 | 1013.5 |
| 20260509060036 | 22 | 94 | 0.0 | 0.0 | 0.00 | 0.03 | 0.00 | 97 | 1013.4 |
| 20260509055933 | 22 | 94 | 0.0 | 0.0 | 0.00 | 0.03 | 0.00 | 97 | 1013.4 |
| 20260509055831 | 22 | 94 | 0.0 | 0.0 | 0.00 | 0.03 | 0.00 | 97 | 1013.4 |
| 20260509055732 | 22 | 94 | 0.0 | 0.0 | 0.00 | 0.03 | 0.00 | 97 | 1013.4 |
| 20260509055632 | 22 | 94 | 0.0 | 0.0 | 0.00 | 0.03 | 0.00 | 97 | 1013.4 |
| 20260509055532 | 22 | 94 | 0.0 | 0.0 | 0.00 | 0.03 | 0.00 | 97 | 1013.3 |
| 20260509055429 | 22 | 94 | 0.0 | 0.0 | 0.00 | 0.03 | 0.00 | 97 | 1013.3 |
| 20260509055327 | 22 | 94 | 0.0 | 0.0 | 0.00 | 0.03 | 0.00 | 97 | 1013.3 |
| 20260509055226 | 22 | 94 | 0.0 | 0.0 | 0.00 | 0.03 | 0.00 | 97 | 1013.2 |
| 20260509055119 | 22 | 94 | 0.0 | 0.0 | 0.00 | 0.03 | 0.00 | 97 | 1013.3 |
| 20260509055018 | 22 | 94 | 0.0 | 0.0 | 0.00 | 0.03 | 0.00 | 97 | 1013.3 |
| 20260509054916 | 22 | 94 | 0.0 | 0.0 | 0.00 | 0.03 | 0.00 | 97 | 1013.3 |
| 20260509054816 | 22 | 94 | 0.0 | 0.0 | 0.00 | 0.03 | 0.00 | 97 | 1013.2 |
| 20260509054712 | 22 | 94 | 0.0 | 0.0 | 0.00 | 0.03 | 0.00 | 97 | 1013.2 |
| 20260509054612 | 22 | 94 | 0.0 | 0.0 | 0.00 | 0.03 | 0.00 | 97 | 1013.1 |
| 20260509054512 | 22 | 94 | 0.0 | 0.0 | 0.00 | 0.03 | 0.00 | 97 | 1013.2 |
| 20260509054409 | 22 | 94 | 0.0 | 0.0 | 0.00 | 0.03 | 0.00 | 97 | 1013.2 |
| 20260509054304 | 22 | 94 | 0.0 | 0.0 | 0.00 | 0.03 | 0.00 | 97 | 1013.2 |
| 20260509054159 | 22 | 94 | 0.0 | 0.0 | 0.00 | 0.03 | 0.00 | 97 | 1013.2 |
| 20260509054033 | 22 | 94 | 0.0 | 0.0 | 0.00 | 0.03 | 0.00 | 97 | 1013.3 |
| 20260509053933 | 22 | 94 | 0.0 | 0.0 | 0.00 | 0.03 | 0.00 | 97 | 1013.2 |
| 20260509053833 | 22 | 94 | 0.0 | 0.0 | 0.00 | 0.03 | 0.00 | 97 | 1013.2 |
| 20260509053731 | 22 | 94 | 0.0 | 0.0 | 0.00 | 0.03 | 0.00 | 97 | 1013.3 |
| 20260509053630 | 22 | 94 | 0.0 | 0.0 | 0.00 | 0.03 | 0.00 | 97 | 1013.3 |
| 20260509053529 | 22 | 94 | 0.0 | 0.0 | 0.00 | 0.03 | 0.00 | 97 | 1013.4 |
| 20260509053427 | 22 | 94 | 0.0 | 0.0 | 0.00 | 0.03 | 0.00 | 97 | 1013.3 |
| 20260509053324 | 22 | 94 | 0.0 | 0.0 | 0.00 | 0.03 | 0.00 | 97 | 1013.3 |
| 20260509053224 | 22 | 94 | 0.0 | 0.0 | 0.00 | 0.03 | 0.00 | 97 | 1013.4 |
| 20260509053122 | 22 | 94 | 0.0 | 0.0 | 0.00 | 0.03 | 0.00 | 97 | 1013.5 |
| 20260509053014 | 22 | 94 | 0.0 | 0.0 | 0.00 | 0.03 | 0.00 | 97 | 1013.4 |
| 20260509052905 | 22 | 94 | 0.0 | 0.0 | 0.00 | 0.03 | 0.00 | 97 | 1013.4 |
| 20260509052804 | 22 | 94 | 0.0 | 0.0 | 0.00 | 0.03 | 0.00 | 97 | 1013.4 |
| 20260509052703 | 22 | 94 | 0.0 | 0.0 | 0.00 | 0.03 | 0.00 | 97 | 1013.4 |
| 20260509052603 | 22 | 94 | 0.0 | 0.0 | 0.00 | 0.03 | 0.00 | 97 | 1013.4 |
| 20260509052503 | 22 | 94 | 0.0 | 0.0 | 0.00 | 0.03 | 0.00 | 97 | 1013.4 |
| 20260509052402 | 22 | 94 | 0.0 | 0.0 | 0.00 | 0.03 | 0.00 | 97 | 1013.5 |
| 20260509052306 | 22 | 94 | 0.0 | 0.0 | 0.00 | 0.03 | 0.00 | 97 | 1013.4 |
| 20260509052202 | 22 | 94 | 0.0 | 0.0 | 0.00 | 0.03 | 0.00 | 97 | 1013.4 |
| 20260509052102 | 22 | 94 | 0.0 | 0.0 | 0.00 | 0.03 | 0.00 | 97 | 1013.3 |
| 20260509052003 | 22 | 94 | 0.0 | 0.0 | 0.00 | 0.03 | 0.00 | 97 | 1013.4 |
| 20260509051903 | 22 | 94 | 0.0 | 0.0 | 0.00 | 0.03 | 0.00 | 97 | 1013.4 |
| 20260509051802 | 22 | 94 | 0.0 | 0.0 | 0.00 | 0.03 | 0.00 | 97 | 1013.4 |
| 20260509051703 | 22 | 94 | 0.0 | 0.0 | 0.00 | 0.03 | 0.00 | 97 | 1013.4 |
| 20260509051603 | 22 | 94 | 0.0 | 0.0 | 0.00 | 0.03 | 0.00 | 97 | 1013.4 |
| 20260509051505 | 22 | 94 | 0.0 | 0.0 | 0.00 | 0.03 | 0.00 | 97 | 1013.4 |
| 20260509051404 | 22 | 94 | 0.0 | 0.0 | 0.00 | 0.03 | 0.00 | 97 | 1013.4 |
| 20260509051301 | 22 | 94 | 0.0 | 0.0 | 0.00 | 0.03 | 0.00 | 97 | 1013.4 |
| 20260509051203 | 22 | 94 | 0.0 | 0.0 | 0.00 | 0.03 | 0.00 | 97 | 1013.5 |
| 20260509051101 | 22 | 94 | 0.0 | 0.0 | 0.00 | 0.03 | 0.00 | 97 | 1013.4 |
| 20260509051004 | 22 | 94 | 0.0 | 0.0 | 0.00 | 0.03 | 0.00 | 97 | 1013.5 |
| 20260509050841 | 22 | 94 | 0.0 | 0.0 | 0.00 | 0.03 | 0.00 | 97 | 1013.5 |
| 20260509050739 | 22 | 94 | 0.0 | 0.0 | 0.00 | 0.03 | 0.00 | 97 | 1013.5 |
| 20260509050639 | 22 | 94 | 0.0 | 0.0 | 0.00 | 0.03 | 0.00 | 97 | 1013.6 |
| 20260509050532 | 22 | 94 | 0.0 | 0.0 | 0.00 | 0.03 | 0.00 | 97 | 1013.5 |
| 20260509050431 | 22 | 94 | 0.0 | 0.0 | 0.00 | 0.03 | 0.00 | 97 | 1013.6 |
| 20260509050332 | 22 | 94 | 0.0 | 0.0 | 0.00 | 0.03 | 0.00 | 97 | 1013.5 |
| 20260509050232 | 22 | 94 | 0.0 | 0.0 | 0.00 | 0.03 | 0.00 | 97 | 1013.5 |
| 20260509050131 | 22 | 94 | 0.0 | 0.0 | 0.00 | 0.03 | 0.00 | 97 | 1013.4 |
| 20260509050032 | 22 | 94 | 0.0 | 0.0 | 0.00 | 0.03 | 0.00 | 97 | 1013.5 |
| 20260509045932 | 22 | 94 | 0.0 | 0.0 | 0.00 | 0.03 | 0.03 | 97 | 1013.5 |
| 20260509045833 | 22 | 94 | 0.0 | 0.0 | 0.00 | 0.03 | 0.03 | 97 | 1013.5 |
| 20260509045731 | 22 | 94 | 0.0 | 1.6 | 0.00 | 0.03 | 0.03 | 97 | 1013.5 |